     2              OBSERVATION DATA    GPS                 RINEX VERSION / TYPE
teqc 1997Sep10 19971030 21:24:30UTC                         PGM / RUN BY / DATE
                                                            COMMENT
BIT 2 OF LLI FLAGS DATA COLLECTED UNDER A-S CONDITION       COMMENT
BIT 2 OF LLI FLAGS DATA COLLECTED UNDER A-S CONDITION       COMMENT
Original Marker Name: 55445.BLAC                            COMMENT
Campaign Name: NGS Imperial Valley 1990                     COMMENT
4-Character Station Name: BLAC                              COMMENT
6-Character Antenna Code: TI4100                            COMMENT
Vertical Measurement Point: PAE                             COMMENT
Vertical Offset to Rinex Ref. Point: 0.0000                 COMMENT
Radial Measurement Point: RRP                               COMMENT
Radial Offset to Rinex Ref. Point: 0.0000                   COMMENT
Antenna Height from Field Measurement: 1.5690 m             COMMENT
Original XYZ: -2306236.4803 -4787965.1042 3515765.2955      COMMENT
New XYZ position is based on association with SCEC monument COMMENT
E1D0M3T8+0011. Position of that monument is believed to be  COMMENT
valid to within 1 m horizontally; vertical accuracy         COMMENT
should be no worse than 3-times this value.                 COMMENT
                                                            COMMENT
Revised Rinex header created by UCSD GPS archive for        COMMENT
GSAC on 12-Apr-1999 (1999:102) 13:05:13 GMT                 COMMENT
For assistance contact dagnew@ucsd.edu or hjohnson@ucsd.edu COMMENT
                                                            COMMENT
BLACK BUTTE NCMN                                            MARKER NAME
05 NATIONAL GEODETIC SURVEY                                 OBSERVER / AGENCY
0089 TI 4100 1.9                                            REC # / TYPE / VERS
4078 TI 4100                                                ANT # / TYPE
 -2306307.0000 -4787914.0000  3515736.0000                  APPROX POSITION XYZ
        1.5690        0.0000        0.0000                  ANTENNA: DELTA H/E/N
     1     1     0                                          WAVELENGTH FACT L1/2
     4    P1    P2    L1    L2                              # / TYPES OF OBSERV
    15                                                      INTERVAL
  1990     2    28     8    37   59.000000                  TIME OF FIRST OBS
  1990     2    28    10    16   59.000000                  TIME OF LAST OBS
     0                                                      # OF SATELLITES
                                                            END OF HEADER
 90  2 28  8 37 59.0800000  0  4G 3G12G19G13
  20850016.623    20850020.882    25891546.089 9 -53716156.587 8
  21133424.447    21133429.737    54574268.040 9 -75533017.012 8
  21797245.935    21797251.307    15070976.589 8 -25339426.008 8
  20840828.456    20840832.414    76348503.886 8-127850675.057 9
 90  2 28  8 38 14.0800000  0  4G 3G12G19G13
  20846692.396    20846697.115    25874079.482 9 -53729766.929 8
  21140758.018    21140763.464    54612806.239 9 -75502987.278 9
  21796809.750    21796814.560    15068683.209 9 -25341213.073 8
  20843597.248    20843600.629    76363050.031 9-127839340.429 7
 90  2 28  8 38 29.0800000  0  4G 3G12G19G13
  20843374.897    20843379.343    25856644.219 9 -53743352.863 7
  21148108.540    21148113.972    54651436.807 9 -75472885.561 8
  21796398.903    21796402.344    15066523.042 8 -25342896.326 8
  20846368.264    20846373.261    76377612.198 9-127827993.288 8
 90  2 28  8 38 44.0800000  0  4G 3G12G19G13
  20840062.634    20840067.581    25839240.160 9 -53756914.471 8
  21155477.070    21155483.159    54690159.363 9 -75442712.188 8
  21796013.723    21796016.560    15064496.050 9 -25344475.809 8
  20849141.933    20849146.078    76392190.253 9-127816633.771 8
 90  2 28  8 38 59.0800000  0  4G 3G12G19G13
  20836757.239    20836761.684    25821867.295 9 -53770451.768 8
  21162863.290    21162868.587    54728973.382 9 -75412467.528 8
  21795652.623    21795657.544    15062601.815 9 -25345951.849 8
  20851919.221    20851922.774    76406784.068 9-127805261.958 9
 90  2 28  8 39 14.0800000  0  4G 3G12G19G13
  20833458.026    20833461.356    25804525.534 9 -53783964.816 8
  21170266.261    21170272.973    54767878.365 9 -75382151.986 8
  21795316.679    21795322.430    15060840.458 8 -25347324.336 9
  20854699.075    20854703.056    76421393.480 9-127793878.026 8
 90  2 28  8 39 29.0800000  0  4G 3G12G19G13
  20830163.935    20830167.266    25787214.622 9 -53797453.840 8
  21177686.626    21177692.718    54806873.885 9 -75351765.887 8
  21795007.551    21795012.042    15059211.808 9 -25348593.430 8
  20857481.887    20857485.933    76436018.659 8-127782481.796 8
 90  2 28  8 39 44.0800000  0  4G 3G12G19G13
  20826876.027    20826879.600    25769934.723 9 -53810918.692 8
  21185124.945    21185131.202    54845959.705 9 -75321309.455 8
  21794722.406    21794727.254    15057715.826 9 -25349759.153 8
  20860268.180    20860272.219    76450659.549 9-127771073.295 8
 90  2 28  8 39 59.0800000  0  4G 3G12G19G13
  20823593.471    20823597.028    25752685.756 9 -53824359.458 8
  21192579.770    21192586.106    54885135.183 9 -75290783.114 8
  21794462.730    21794468.853    15056352.383 8 -25350821.578 9
  20863056.964    20863061.549    76465315.964 9-127759652.721 8
 90  2 28  8 40 14.0800000  0  4G 3G12G19G13
  20820315.835    20820319.737    25735467.612 9 -53837776.190 9
  21200051.704    21200057.836    54924399.935 9 -75260187.242 8
  21794229.733    21794233.060    15055121.377 9 -25351780.827 8
  20865849.700    20865853.233    76479987.986 8-127748219.942 8
 90  2 28  8 40 29.0800000  0  4G 3G12G19G13
  20817045.240    20817048.425    25718280.028 9 -53851169.105 8
  21207541.076    21207546.345    54963753.560 9 -75229522.113 9
  21794019.890    21794023.915    15054022.631 9 -25352637.012 8
  20868643.587    20868648.955    76494675.336 9-127736775.279 8
 90  2 28  8 40 44.0800000  0  4G 3G12G19G13
  20813779.854    20813783.913    25701123.226 9 -53864538.046 8
  21215046.626    21215052.105    55003195.754 9 -75198787.963 8
  21793835.831    21793840.623    15053055.797 9 -25353390.404 8
  20871441.893    20871446.865    76509378.222 9-127725318.514 9
 90  2 28  8 40 59.0800000  0  4G 3G12G19G13
  20810521.336    20810525.682    25683997.225 9 -53877882.969 8
  21222568.686    21222574.001    55042726.261 9 -75167984.997 9
  21793676.792    21793681.098    15052221.120 8 -25354040.801 9
  20874242.763    20874248.233    76524096.715 9-127713849.560 8
 90  2 28  8 41 14.0800000  0  4G 3G12G19G13
  20807268.228    20807272.057    25666901.500 9 -53891204.316 8
  21230107.717    21230112.575    55082344.459 9 -75137113.704 7
  21793543.581    21793547.736    15051518.523 9 -25354588.281 9
  20877046.865    20877050.660    76538830.730 8-127702368.517 8
 90  2 28  8 41 29.0800000  0  4G 3G12G19G13
  20804021.701    20804024.515    25649836.562 9 -53904501.670 8
  21237663.486    21237669.403    55122050.097 9 -75106174.269 9
  21793435.190    21793438.858    15050947.971 8 -25355032.872 8
  20879853.960    20879857.702    76553580.342 9-127690875.289 7
 90  2 28  8 41 44.0800000  0  4G 3G12G19G13
  20800779.981    20800782.924    25632802.209 8 -53917775.201 8
  21245236.963    21245240.772    55161842.830 9 -75075166.977 7
  21793351.961    21793355.844    15050509.177 9 -25355374.808 8
  20882663.627    20882667.522    76568345.470 9-127679370.001 9
 90  2 28  8 41 59.0800000  0  4G 3G12G19G13
  20797543.386    20797547.260    25615798.552 9 -53931024.800 9
  21252823.760    21252831.532    55201722.300 9 -75044092.101 8
  21793293.172    21793297.499    15050202.238 9 -25355614.012 9
  20885475.629    20885480.283    76583125.900 9-127667852.814 7
 90  2 28  8 42 14.0800000  0  4G 3G12G19G13
  20794314.059    20794317.431    25598825.367 9 -53944250.661 8
  21260430.280    21260435.193    55241687.963 9 -75012950.055 8
  21793259.253    21793264.059    15050026.962 9 -25355750.595 9
  20888292.142    20888296.132    76597921.939 9-127656323.430 8
 90  2 28  8 42 29.0800000  0  4G 3G12G19G13
  20791089.826    20791093.872    25581882.703 9 -53957452.764 8
  21268051.965    21268056.336    55281739.568 9 -74981741.037 8
  21793250.531    21793256.582    15049983.377 9 -25355784.572 8
  20891109.996    20891114.017    76612733.524 9-127644781.942 9
 90  2 28  8 42 44.0800000  0  4G 3G12G19G13
  20787871.610    20787874.950    25564970.385 9 -53970631.175 8
  21275689.789    21275694.579    55321876.444 9 -74950465.577 8
  21793268.283    21793273.295    15050070.753 8 -25355716.490 8
  20893932.416    20893935.038    76627560.326 8-127633228.577 8
 90  2 28  8 42 59.0800000  0  4G 3G12G19G13
  20784658.653    20784663.564    25548088.692 8 -53983785.745 8
  21283343.864    21283348.982    55362098.564 9 -74919123.683 8
  21793309.894    21793315.295    15050289.556 8 -25355546.010 8
  20896755.706    20896759.214    76642402.848 9-127621662.981 8
 90  2 28  8 43 14.0800000  0  4G 3G12G19G13
  20781452.016    20781457.232    25531237.144 8 -53996916.817 8
  21291013.437    21291019.021    55402404.939 8 -74887716.148 8
  21793376.725    21793381.346    15050639.491 9 -25355273.349 8
  20899583.831    20899589.631    76657260.459 9-127610085.632 8
 90  2 28  8 43 29.0800000  0  4G 3G12G19G13
  20778251.201    20778254.687    25514415.414 9 -54010024.659 8
  21298700.024    21298705.555    55442795.190 9 -74856243.254 8
  21793467.504    21793473.626    15051120.109 8 -25354898.858 9
  20902413.504    20902418.057    76672133.073 9-127598496.613 8
 90  2 28  8 43 44.0800000  0  4G 3G12G19G13
  20775055.901    20775059.406    25497623.802 9 -54023109.034 8
  21306401.582    21306406.547    55483269.071 9 -74824705.186 8
  21793584.246    21793589.060    15051731.361 8 -25354422.563 9
  20905246.895    20905251.306    76687020.748 9-127586895.816 8
 90  2 28  8 43 59.0800000  0  4G 3G12G19G13
  20771865.245    20771869.543    25480862.248 8 -54036169.978 8
  21314118.820    21314125.602    55523826.139 9 -74793102.299 9
  21793725.564    21793730.185    15052473.214 8 -25353844.520 9
  20908081.975    20908087.316    76701923.623 9-127575283.183 8
 90  2 28  8 44 14.0800000  0  4G 3G12G19G13
  20768683.109    20768685.884    25464130.648 8 -54049207.597 9
  21321852.251    21321857.872    55564465.869 9 -74761435.007 8
  21793891.487    21793896.602    15053345.632 9 -25353164.735 8
  20910921.292    20910925.114    76716841.490 9-127563658.897 8
 90  2 28  8 44 29.0800000  0  4G 3G12G19G13
  20765503.758    20765507.874    25447428.944 9 -54062221.914 8
  21329602.132    21329607.241    55605187.890 9 -74729703.595 8
  21794081.499    21794086.827    15054348.296 9 -25352383.451 8
  20913762.553    20913767.336    76731774.537 9-127552022.752 8
 90  2 28  8 44 44.0800000  0  4G 3G12G19G13
  20762331.398    20762335.060    25430756.985 9 -54075213.040 8
  21337367.312    21337372.055    55645991.748 9 -74697908.407 8
  21794297.884    21794302.038    15055481.120 9 -25351500.734 9
  20916607.478    20916612.475    76746722.489 8-127540374.998 8
 90  2 28  8 44 59.0800000  0  4G 3G12G19G13
  20759165.272    20759168.361    25414114.643 9 -54088181.107 8
  21345147.843    21345153.306    55686876.981 9 -74666049.815 8
  21794538.765    21794542.062    15056743.727 9 -25350516.904 8
  20919454.836    20919458.145    76761685.453 9-127528715.538 7
 90  2 28  8 45 14.0800000  0  4G 3G12G19G13
  20756003.259    20756007.897    25397501.969 9 -54101126.045 8
  21352943.187    21352947.823    55727843.249 9 -74634128.077 7
  21794803.300    21794807.240    15058136.449 9 -25349431.686 9
  20922305.284    20922309.050    76776663.360 8-127517044.444 8
 90  2 28  8 45 29.0800000  0  4G 3G12G19G13
  20752847.735    20752851.422    25380919.104 9 -54114047.756 9
  21360753.159    21360759.547    55768890.050 9 -74602143.589 9
  21795093.397    21795097.217    15059658.958 9 -25348245.320 9
  20925157.793    20925162.147    76791656.252 9-127505361.692 9
 90  2 28  8 45 44.0800000  0  4G 3G12G19G13
  20749697.824    20749701.455    25364365.563 8 -54126946.606 8
  21368579.067    21368585.191    55810016.913 9 -74570096.722 9
  21795407.627    21795411.811    15061311.050 9 -25346957.982 8
  20928014.280    20928018.346    76806663.984 9-127493667.392 8
 90  2 28  8 45 59.0800000  0  4G 3G12G19G13
  20746553.076    20746557.567    25347841.725 9 -54139822.337 8
  21376421.044    21376427.674    55851223.447 9 -74537987.768 8
  21795745.919    21795750.503    15063092.473 9 -25345569.886 8
  20930873.485    20930877.338    76821686.681 9-127481961.385 8
 90  2 28  8 46 14.0800000  0  4G 3G12G19G13
  20743414.919    20743418.248    25331347.417 9 -54152675.037 8
  21384277.768    21384283.624    55892509.342 9 -74505816.974 8
  21796109.508    21796114.278    15065003.132 9 -25344081.069 8
  20933734.580    20933738.490    76836724.210 9-127470243.824 8
 90  2 28  8 46 29.0800000  0  4G 3G12G19G13
  20740281.721    20740285.583    25314882.813 9 -54165504.600 8
  21392148.770    21392154.524    55933874.268 9 -74473584.587 9
  21796497.411    21796501.679    15067043.203 9 -25342491.412 8
  20936598.135    20936603.076    76851776.365 9-127458514.885 8
 90  2 28  8 46 44.0800000  0  4G 3G12G19G13
  20737154.111    20737158.302    25298447.558 9 -54178311.296 8
  21400035.062    21400040.807    55975317.682 9 -74441291.065 9
  21796910.667    21796915.709    15069212.275 8 -25340801.261 9
  20939465.525    20939470.065    76866843.378 9-127446774.381 8
 90  2 28  8 46 59.0800000  0  4G 3G12G19G13
  20734031.998    20734036.202    25282041.773 9 -54191095.022 8
  21407936.928    21407942.386    56016839.171 9 -74408936.689 8
  21797347.612    21797352.490    15071510.376 9 -25339010.538 9
  20942335.434    20942339.387    76881925.302 9-127435022.252 8
 90  2 28  8 47 14.0800000  0  4G 3G12G19G13
  20730916.137    20730920.183    25265665.411 9 -54203855.812 8
  21415853.374    21415858.432    56058438.411 9 -74376521.737 9
  21797809.951    21797814.814    15073937.070 8 -25337119.624 9
  20945208.634    20945213.173    76897021.958 9-127423258.627 8
 90  2 28  8 47 29.0800000  0  4G 3G12G19G13
  20727803.684    20727808.581    25249318.257 9 -54216593.843 8
  21423783.750    21423790.147    56100114.828 9 -74344046.644 8
  21798296.951    21798300.962    15076492.149 9 -25335128.662 8
  20948084.840    20948088.293    76912133.362 9-127411483.503 9
 90  2 28  8 47 44.0800000  0  4G 3G12G19G13
  20724698.572    20724703.651    25233000.425 8 -54229309.054 8
  21431729.506    21431734.432    56141868.148 8 -74311511.633 8
  21798808.191    21798810.884    15079176.035 9 -25333037.333 9
  20950961.502    20950966.041    76927259.785 8-127399696.687 8
 90  2 28  8 47 59.0800000  0  4G 3G12G19G13
  20721600.481    20721604.365    25216712.066 9 -54242001.285 8
  21439688.729    21439696.060    56183698.171 9 -74278916.835 8
  21799342.273    21799346.558    15081988.439 9 -25330845.865 8
  20953843.403    20953848.312    76942401.355 8-127387898.075 7
 90  2 28  8 48 14.0800000  0  4G 3G12G19G13
  20718505.725    20718510.021    25200453.238 9 -54254670.493 9
  21447663.883    21447669.504    56225604.433 9 -74246262.643 8
  21799901.306    21799905.882    15084929.132 9 -25328554.434 9
  20956727.649    20956732.877    76957558.011 9-127376087.709 8
 90  2 28  8 48 29.0800000  0  4G 3G12G19G13
  20715417.973    20715421.624    25184223.654 8 -54267316.921 8
  21455652.487    21455658.635    56267586.435 9 -74213549.423 8
  21800485.816    21800490.085    15087998.055 8 -25326163.071 8
  20959615.272    20959620.098    76972729.518 9-127364265.756 8
 90  2 28  8 48 44.0800000  0  4G 3G12G19G13
  20712334.628    20712338.864    25168023.289 9 -54279940.593 9
  21463655.530    21463661.896    56309643.775 9 -74180777.497 8
  21801093.684    21801099.506    15091194.996 8 -25323671.966 8
  20962505.415    20962509.983    76987915.797 9-127352432.275 8
 90  2 28  8 48 59.0800000  0  4G 3G12G19G13
  20709258.045    20709261.392    25151852.122 8 -54292541.491 8
  21471673.531    21471679.972    56351776.092 9 -74147947.158 8
  21801726.953    21801731.365    15094519.759 9 -25321081.251 8
  20965397.846    20965401.327    77003116.729 9-127340587.416 8
 90  2 28  8 49 14.0800000  0  4G 3G12G19G13
  20706186.569    20706190.269    25135710.168 8 -54305119.637 8
  21479704.977    21479711.334    56393983.034 9 -74115058.652 8
  21802384.110    21802387.349    15097972.247 9 -25318391.022 8
  20968293.026    20968297.364    77018332.667 9-127328730.841 8
 90  2 28  8 49 29.0800000  0  4G 3G12G19G13
  20703120.182    20703124.168    25119597.348 9 -54317675.095 8
  21487750.968    21487757.440    56436263.907 9 -74082112.568 8
  21803064.556    21803069.298    15101552.322 9 -25315601.368 8
  20971192.011    20971196.192    77033563.514 9-127316862.661 9
 90  2 28  8 49 44.0800000  0  4G 3G12G19G13
  20700058.858    20700063.395    25103513.685 9 -54330207.830 8
  21495810.843    21495816.352    56478618.299 9 -74049109.173 8
  21803770.929    21803775.578    15105259.726 9 -25312712.504 9
  20974092.399    20974097.109    77048809.199 9-127304982.923 8
 90  2 28  8 49 59.0800000  0  4G 3G12G19G13
  20697003.472    20697008.643    25087458.962 9 -54342717.998 9
  21503884.146    21503890.045    56521045.845 9 -74016048.781 8
  21804500.191    21804505.176    15109094.250 9 -25309724.573 8
  20976996.391    20977000.573    77064069.615 9-127293091.704 8
 90  2 28  8 50 14.0800000  0  4G 3G12G19G13
  20693955.206    20693959.318    25071433.058 9 -54355205.708 8
  21511972.021    21511977.763    56563545.950 9 -73982931.848 8
  21805254.300    21805259.249    15113055.804 8 -25306637.658 9
  20979902.961    20979907.629    77079344.613 8-127281189.129 8
 90  2 28  8 50 29.0800000  0  4G 3G12G19G13
  20690910.990    20690913.661    25055435.861 9 -54367671.050 9
  21520073.220    21520078.886    56606118.213 9 -73949758.694 9
  21806033.113    21806036.688    15117144.133 9 -25303451.957 9
  20982812.850    20982817.489    77094634.235 9-127269275.151 8
 90  2 28  8 50 44.0800000  0  4G 3G12G19G13
  20687871.681    20687875.894    25039467.677 9 -54380113.796 8
  21528187.613    21528193.693    56648762.361 9 -73916529.515 9
  21806834.629    21806838.877    15121359.248 9 -25300167.475 8
  20985725.142    20985729.810    77109938.671 9-127257349.608 7
 90  2 28  8 50 59.0800000  0  4G 3G12G19G13
  20684839.031    20684841.899    25023528.459 9 -54392533.959 8
  21536316.676    21536322.782    56691477.936 9 -73883244.684 9
  21807661.079    21807664.454    15125701.023 9 -25296784.283 9
  20988640.812    20988644.465    77125258.065 9-127245412.405 7
 90  2 28  8 51 14.0800000  0  4G 3G12G19G13
  20681810.929    20681814.295    25007618.094 9 -54404931.661 7
  21544458.545    21544464.694    56734264.436 9 -73849904.597 8
  21808510.424    21808515.386    15130168.784 9 -25293302.932 7
  20991557.712    20991564.040    77140591.898 8-127233463.959 7
 90  2 28  8 51 29.0800000  0  4G 3G12G19G13
  20678789.566    20678792.391    24991736.457 9 -54417306.946 7
  21552613.494    21552620.259    56777121.362 9 -73816509.609 8
  21809383.913    21809389.407    15134762.458 9 -25289723.452 9
  20994479.249    20994482.571    77155940.417 8-127221504.096 8
 90  2 28  8 51 44.0800000  0  4G 3G12G19G13
  20675771.428    20675775.709    24975883.360 8 -54429660.022 9
  21560782.770    21560788.690    56820048.299 9 -73783060.079 7
  21810282.109    21810287.403    15139482.117 9 -25286045.814 9
  20997402.359    20997407.614    77171303.482 9-127209532.925 7
 90  2 28  8 51 59.0800000  0  4G 3G12G19G13
  20672760.695    20672763.969    24960058.712 9 -54441990.910 8
  21568964.934    21568970.024    56863044.913 9 -73749556.247 7
  21811204.252    21811210.517    15144327.499 9 -25282270.195 8
  21000328.503    21000333.129    77186681.196 9-127197550.288 9
 90  2 28  8 52 14.0800000  0  4G 3G12G19G13
  20669755.029    20669758.087    24944263.055 8 -54454299.223 8
  21577159.333    21577166.409    56906110.776 8 -73715998.482 8
  21812151.428    21812155.383    15149298.483 8 -25278396.711 8
  21003257.938    21003261.861    77202073.631 8-127185556.172 8
 90  2 28  8 52 29.0800000  0  4G 3G12G19G13
  20666754.513    20666757.687    24928495.966 9 -54466585.280 7
  21585368.967    21585373.894    56949245.472 9 -73682387.050 8
  21813121.326    21813125.073    15154395.313 9 -25274425.175 9
  21006189.691    21006194.359    77217480.737 9-127173550.660 8
 90  2 28  8 52 44.0800000  0  4G 3G12G19G13
  20663758.672    20663763.787    24912757.641 9 -54478848.904 8
  21593589.556    21593595.275    56992448.711 9 -73648722.219 8
  21814114.648    21814118.039    15159617.633 9 -25270355.854 8
  21009123.906    21009129.676    77232902.579 9-127161533.669 7
 90  2 28  8 52 59.0800000  0  4G 3G12G19G13
  20660770.004    20660774.664    24897047.903 9 -54491090.260 8
  21601824.296    21601829.976    57035719.931 9 -73615004.419 8
  21815132.263    21815136.798    15164964.997 8 -25266189.079 9
  21012062.126    21012066.495    77248338.964 8-127149505.350 9
 90  2 28  8 53 14.0800000  0  4G 3G12G19G13
  20657786.667    20657790.240    24881366.628 8 -54503309.427 8
  21610071.209    21610077.365    57079058.724 9 -73581233.957 9
  21816173.986    21816177.898    15170437.369 9 -25261924.920 9
  21015002.093    21015006.661    77263790.058 9-127137465.528 8
 90  2 28  8 53 29.0800000  0  4G 3G12G19G13
  20654807.322    20654810.712    24865713.870 9 -54515506.382 8
  21618330.854    21618337.025    57122464.677 9 -73547411.178 9
  21817237.975    21817243.447    15176034.357 9 -25257563.633 8
  21017945.179    21017948.115    77279255.713 9-127125414.357 7
 90  2 28  8 53 44.0800000  0  4G 3G12G19G13
  20651834.290    20651838.714    24850089.855 9 -54527680.943 7
  21626603.128    21626609.747    57165937.457 9 -73513536.321 9
  21818326.619    21818332.799    15181756.256 9 -25253105.024 8
  21020891.413    21020894.994    77294736.308 9-127113351.571 8
 90  2 28  8 53 59.0800000  0  4G 3G12G19G13
  20648867.293    20648870.787    24834494.532 8 -54539833.149 8
  21634888.493    21634896.257    57209476.685 8 -73479609.698 9
  21819440.183    21819444.723    15187602.794 9 -25248549.303 9
  21023839.651    21023843.303    77310231.894 9-127101277.092 8
 90  2 28  8 54 14.0800000  0  4G 3G12G19G13
  20645904.650    20645908.474    24818927.756 9 -54551963.097 8
  21643185.718    21643192.712    57253081.959 9 -73445631.591 8
  21820576.556    21820580.453    15193573.444 9 -25243896.867 8
  21026791.837    21026795.876    77325742.287 9-127089191.102 8
 90  2 28  8 54 29.0800000  0  4G 3G12G19G13
  20642947.995    20642952.195    24803389.517 9 -54564070.811 8
  21651496.301    21651503.960    57296752.862 9 -73411602.364 8
  21821736.508    21821741.379    15199668.216 9 -25239147.716 8
  21029745.197    21029749.393    77341267.407 9-127077093.627 7
 90  2 28  8 54 44.0800000  0  4G 3G12G19G13
  20639996.413    20639999.808    24787879.693 9 -54576156.389 8
  21659819.227    21659825.649    57340488.896 8 -73377522.368 9
  21822920.479    21822924.242    15205886.900 9 -25234302.011 8
  21032702.821    21032707.420    77356807.564 8-127064984.435 7
 90  2 28  8 54 59.0800000  0  4G 3G12G19G13
  20637050.358    20637053.980    24772398.352 8 -54588219.785 8
  21668154.204    21668161.119    57384289.534 9 -73343392.048 9
  21824126.602    21824130.973    15212229.335 9 -25229359.875 8
  21035662.735    21035667.359    77372362.518 9-127052863.706 8
 90  2 28  8 55 14.0800000  0  4G 3G12G19G13
  20634109.684    20634114.068    24756945.284 9 -54600261.130 9
  21676501.253    21676507.779    57428154.276 9 -73309211.766 9
  21825357.709    21825362.070    15218695.370 9 -25224321.407 8
  21038625.683    21038630.623    77387932.305 9-127040731.413 8
 90  2 28  8 55 29.0800000  0  4G 3G12G19G13
  20631174.292    20631179.078    24741520.757 8 -54612280.243 8
  21684861.409    21684867.101    57472082.804 9 -73274981.793 9
  21826611.237    21826615.942    15225284.585 9 -25219186.973 8
  21041591.090    21041595.973    77403516.749 9-127028587.701 7
 90  2 28  8 55 44.0800000  0  4G 3G12G19G13
  20628244.796    20628248.222    24726124.510 9 -54624277.314 9
  21693233.075    21693239.024    57516074.922 9 -73240702.249 9
  21827888.770    21827892.194    15231997.216 9 -25213956.362 8
  21044560.476    21044564.859    77419116.100 8-127016432.373 8
 90  2 28  8 55 59.0800000  0  4G 3G12G19G13
  20625318.295    20625323.326    24710756.861 9 -54636252.112 8
  21701616.036    21701623.685    57560130.161 9 -73206373.540 8
  21829188.802    21829193.644    15238833.236 8 -25208629.606 9
  21047531.152    21047535.733    77434730.518 8-127004265.314 9
 90  2 28  8 56 14.0800000  0  4G 3G12G19G13
  20622400.418    20622404.742    24695417.641 9 -54648204.748 8
  21710011.705    21710018.476    57604248.007 9 -73171996.036 9
  21830513.420    21830517.461    15245791.987 9 -25203207.208 9
  21050505.718    21050508.983    77450359.961 9-126992086.519 8
 90  2 28  8 56 29.0800000  0  4G 3G12G19G13
  20619487.958    20619491.101    24680106.826 9 -54660135.246 8
  21718418.798    21718425.256    57648428.032 9 -73137570.087 9
  21831860.924    21831865.143    15252873.351 9 -25197689.281 8
  21053482.631    21053486.312    77466004.031 9-126979896.351 8
 90  2 28  8 56 44.0800000  0  4G 3G12G19G13
  20616579.521    20616582.990    24664824.230 9 -54672043.761 9
  21726837.942    21726844.641    57692669.748 9 -73103096.058 9
  21833231.452    21833235.779    15260077.102 9 -25192075.977 8
  21056462.378    21056465.256    77481662.744 9-126967694.785 7
 90  2 28  8 56 59.0800000  0  4G 3G12G19G13
  20613676.304    20613680.481    24649569.947 8 -54683930.219 8
  21735268.414    21735274.320    57736972.749 9 -73068574.284 9
  21834624.740    21834629.479    15267402.959 9 -25186367.546 9
  21059445.444    21059449.010    77497336.500 8-126955481.462 8
 90  2 28  8 57 14.0800000  0  4G 3G12G19G13
  20610778.382    20610783.128    24634343.909 9 -54695794.661 8
  21743710.368    21743716.708    57781336.585 9 -73034005.113 8
  21836042.594    21836047.149    15274850.941 9 -25180563.937 9
  21062430.312    21062435.109    77513025.083 9-126943256.613 8
 90  2 28  8 57 29.0800000  0  4G 3G12G19G13
  20607886.240    20607890.872    24619146.035 9 -54707637.151 8
  21752163.402    21752170.661    57825760.872 9 -72999388.829 9
  21837483.880    21837488.329    15282420.757 9 -25174665.392 9
  21065418.443    21065422.554    77528728.466 9-126931020.214 8
 90  2 28  8 57 44.0800000  0  4G 3G12G19G13
  20604999.969    20605005.101    24603976.458 9 -54719457.592 9
  21760629.114    21760636.011    57870245.155 9 -72964725.800 9
  21838947.232    21838952.316    15290112.481 9 -25168671.871 9
  21068408.950    21068413.718    77544446.895 8-126918772.122 8
 90  2 28  8 57 59.0800000  0  4G 3G12G19G13
  20602119.500    20602123.269    24588835.000 9 -54731256.148 8
  21769105.970    21769112.262    57914788.934 9 -72930016.403 9
  21840433.657    21840439.221    15297925.699 9 -25162583.659 9
  21071402.977    21071408.332    77560180.149 9-126906512.432 8
 90  2 28  8 58 14.0800000  0  4G 3G12G19G13
  20599243.750    20599247.223    24573721.639 8 -54743032.793 9
  21777593.023    21777599.978    57959391.769 9 -72895260.991 8
  21841943.678    21841947.897    15305860.116 9 -25156401.017 9
  21074400.524    21074405.163    77575928.347 9-126894241.075 9
 90  2 28  8 58 29.0800000  0  4G 3G12G19G13
  20596372.249    20596376.622    24558636.641 9 -54754787.332 8
  21786092.859    21786098.722    58004053.362 9 -72860459.792 9
  21843476.544    21843480.856    15313915.439 9 -25150124.164 8
  21077399.902    21077404.027    77591691.367 9-126881958.215 8
 90  2 28  8 58 44.0800000  0  4G 3G12G19G13
  20593507.324    20593512.632    24543579.838 8 -54766519.897 8
  21794602.822    21794609.279    58048773.342 9 -72825613.103 8
  21845032.511    21845037.375    15322091.644 8 -25143753.109 9
  21080402.458    21080408.014    77607469.213 9-126869663.790 7
 90  2 28  8 58 59.0800000  0  4G 3G12G19G13
  20590647.768    20590651.966    24528551.122 9 -54778230.581 9
  21803123.316    21803129.083    58093551.351 9 -72790721.199 9
  21846611.560    21846616.530    15330388.760 9 -25137287.846 9
  21083407.445    21083412.570    77623262.119 9-126857357.646 8
 90  2 28  8 59 14.0800000  0  4G 3G12G19G13
  20587793.313    20587796.757    24513550.492 9 -54789919.391 8
  21811655.542    21811661.820    58138386.778 9 -72755784.533 8
  21848213.495    21848217.235    15338806.211 9 -25130728.811 8
  21086416.010    21086420.935    77639069.922 9-126845039.912 8
 90  2 28  8 59 29.0800000  0  4G 3G12G19G13
  20584944.711    20584948.312    24498578.006 9 -54801586.253 8
  21820197.894    21820204.465    58183279.038 9 -72720803.593 8
  21849837.997    21849842.561    15347343.831 9 -25124076.143 9
  21089427.036    21089431.504    77654892.401 9-126832710.714 8
 90  2 28  8 59 44.0800000  0  4G 3G12G19G13
  20582099.635    20582104.092    24483633.435 9 -54813231.373 7
  21828751.953    21828758.424    58228227.644 9 -72685778.749 8
  21851485.894    21851490.915    15356001.467 9 -25117329.955 7
  21092441.267    21092445.649    77670729.863 9-126820369.832 8
 90  2 28  8 59 59.0800000  0  4G 3G12G19G13
  20579260.463    20579266.017    24468716.790 9 -54824854.735 9
  21837314.448    21837321.178    58273232.405 9 -72650710.149 8
  21853156.120    21853159.967    15364778.894 9 -25110490.413 8
  21095457.388    21095462.057    77686582.087 9-126808017.462 8
 90  2 28  9  0 14.0800000  0  4G 3G12G19G13
  20576426.970    20576432.597    24453828.264 9 -54836456.179 8
  21845891.479    21845896.826    58318292.768 9 -72615598.233 8
  21854849.485    21854852.796    15373675.446 9 -25103558.057 9
  21098476.369    21098480.923    77702449.310 9-126795653.411 8
 90  2 28  9  0 29.0800000  0  4G 3G12G19G13
  20573600.816    20573604.671    24438967.587 9 -54848035.921 8
  21854475.603    21854482.156    58363408.373 9 -72580443.238 9
  21856564.142    21856569.063    15382691.401 9 -25096532.660 8
  21101498.786    21101502.625    77718331.624 9-126783277.575 8
 90  2 28  9  0 44.0800000  0  4G 3G12G19G13
  20570778.185    20570781.421    24424135.057 9 -54859593.736 8
  21863071.135    21863077.188    58408578.864 9 -72545245.516 8
  21858302.502    21858308.403    15391826.587 9 -25089414.344 9
  21104523.291    21104528.132    77734229.203 9-126770889.847 7
 90  2 28  9  0 59.0800000  0  4G 3G12G19G13
  20567960.898    20567965.455    24409330.608 9 -54871129.659 8
  21871677.614    21871683.058    58453803.660 9 -72510005.442 8
  21860064.436    21860068.841    15401080.719 9 -25082203.348 8
  21107551.116    21107556.527    77750141.745 9-126758490.504 8
 90  2 28  9  1 14.0800000  0  4G 3G12G19G13
  20565148.434    20565152.959    24394554.061 9 -54882643.867 8
  21880293.185    21880300.405    58499082.410 9 -72474723.359 7
  21861847.792    21861852.183    15410453.721 9 -25074899.734 9
  21110582.347    21110587.129    77766069.247 9-126746079.477 7
 90  2 28  9  1 29.0800000  0  4G 3G12G19G13
  20562341.940    20562345.759    24379805.468 9 -54894136.269 8
  21888919.611    21888926.161    58544414.771 9 -72439399.493 8
  21863654.235    21863658.589    15419945.372 9 -25067503.652 8
  21113617.728    21113621.323    77782011.906 9-126733656.628 8
 90  2 28  9  1 44.0800000  0  4G 3G12G19G13
  20559540.820    20559543.210    24365084.753 9 -54905606.956 9
  21897556.508    21897563.031    58589800.208 9 -72404034.272 8
  21865481.948    21865487.269    15429555.287 9 -25060015.423 8
  21116653.538    21116658.034    77797969.709 9-126721221.976 8
 90  2 28  9  1 59.0800000  0  4G 3G12G19G13
  20556744.825    20556749.005    24350391.982 9 -54917055.876 8
  21906202.826    21906209.875    58635238.269 8 -72368628.035 8
  21867334.331    21867338.042    15439283.441 9 -25052435.072 8
  21119693.868    21119696.547    77813942.610 9-126708775.575 9
 90  2 28  9  2 14.0800000  0  4G 3G12G19G13
  20553954.214    20553958.777    24335727.154 9 -54928483.020 9
  21914859.962    21914866.219    58680728.554 9 -72333181.114 8
  21869207.669    21869211.889    15449129.149 9 -25044763.116 8
  21122736.403    21122740.285    77829930.493 9-126696317.503 8
 90  2 28  9  2 29.0800000  0  4G 3G12G19G13
  20551169.484    20551173.537    24321090.310 9 -54939888.345 9
  21923526.032    21923532.507    58726270.590 8 -72297693.850 8
  21871104.146    21871107.413    15459092.418 9 -25036999.554 8
  21125780.541    21125784.879    77845933.590 9-126683847.586 8
 90  2 28  9  2 44.0800000  0  4G 3G12G19G13
  20548388.976    20548393.253    24306481.403 9 -54951271.906 8
  21932202.604    21932209.057    58771864.075 9 -72262166.519 9
  21873021.355    21873027.170    15469173.345 9 -25029144.307 8
  21128829.458    21128834.026    77861952.199 9-126671365.548 8
 90  2 28  9  2 59.0800000  0  4G 3G12G19G13
  20545614.828    20545618.464    24291900.566 9 -54962633.597 8
  21940887.958    21940895.560    58817508.607 9 -72226599.389 8
  21874961.990    21874968.321    15479371.418 9 -25021197.780 7
  21131879.777    21131885.218    77877986.099 9-126658871.597 9
 90  2 28  9  3 14.0800000  0  4G 3G12G19G13
  20542845.455    20542848.496    24277347.762 9 -54973973.440 8
  21949583.826    21949590.115    58863203.735 9 -72190992.847 9
  21876925.362    21876930.304    15489686.759 9 -25013159.866 8
  21134934.647    21134939.272    77894035.284 9-126646365.731 8
 90  2 28  9  3 29.0800000  0  4G 3G12G19G13
  20540080.496    20540085.927    24262822.832 9 -54985291.564 7
  21958289.113    21958295.925    58908948.915 8 -72155347.304 8
  21878910.513    21878915.684    15500118.639 9 -25005031.163 9
  21137990.833    21137995.644    77910099.726 9-126633847.984 8
 90  2 28  9  3 44.0800000  0  4G 3G12G19G13
  20537322.235    20537325.455    24248325.644 8 -54996588.075 8
  21967002.953    21967010.942    58954743.681 9 -72119663.141 8
  21880918.558    21880922.262    15510666.874 9 -24996811.767 8
  21141050.052    21141055.464    77926179.235 9-126621318.506 8
 90  2 28  9  3 59.0800000  0  4G 3G12G19G13
  20534569.173    20534573.118    24233856.348 9 -55007862.853 8
  21975726.792    21975733.872    59000587.740 9 -72083940.533 9
  21882946.921    21882952.400    15521331.407 9 -24988501.768 8
  21144114.280    21144118.505    77942274.061 9-126608777.098 8
 90  2 28  9  4 14.0800000  0  4G 3G12G19G13
  20531821.505    20531824.616    24219414.655 8 -55019116.115 8
  21984459.367    21984467.101    59046480.303 9 -72048180.148 9
  21884998.789    21885002.236    15532111.791 9 -24980101.482 8
  21147179.995    21147184.249    77958383.965 9-126596223.938 8
 90  2 28  9  4 29.0800000  0  4G 3G12G19G13
  20529077.527    20529081.567    24205000.843 9 -55030347.665 7
  21993203.218    21993209.867    59092421.044 9 -72012382.230 8
  21887072.277    21887075.201    15543007.718 9 -24971611.169 8
  21150248.145    21150251.968    77974509.115 8-126583658.886 8
 90  2 28  9  4 44.0800000  0  4G 3G12G19G13
  20526340.161    20526344.718    24190614.724 9 -55041557.629 9
  22001954.236    22001961.248    59138409.548 9 -71976547.092 9
  21889167.079    21889172.750    15554019.387 9 -24963030.672 8
  21153318.467    21153323.751    77990649.414 9-126571082.049 8
 90  2 28  9  4 59.0800000  0  4G 3G12G19G13
  20523607.176    20523612.091    24176256.331 9 -55052745.984 8
  22010714.557    22010721.894    59184445.638 9 -71940674.880 9
  21891285.141    21891288.522    15565146.545 9 -24954360.184 8
  21156393.713    21156397.981    78006804.852 9-126558493.399 8
 90  2 28  9  5 14.0800000  0  4G 3G12G19G13
  20520880.685    20520885.038    24161925.915 9 -55063912.535 8
  22019483.788    22019490.231    59230528.833 9 -71904765.947 8
  21893424.666    21893430.145    15576388.643 9 -24945600.126 8
  21159470.562    21159476.346    78022975.608 9-126545892.818 8
 90  2 28  9  5 29.0800000  0  4G 3G12G19G13
  20518159.134    20518163.265    24147623.446 9 -55075057.323 8
  22028261.862    22028269.511    59276658.673 9 -71868820.669 9
  21895585.590    21895589.674    15587745.435 9 -24936750.711 8
  21162551.073    21162555.570    78039162.035 9-126533280.024 7
 90  2 28  9  5 44.0800000  0  4G 3G12G19G13
  20515442.505    20515446.883    24133348.684 8 -55086180.521 8
  22037048.969    22037055.899    59322834.813 9 -71832839.325 8
  21897768.802    21897772.606    15599216.922 8 -24927811.898 8
  21165633.388    21165639.272    78055364.029 9-126520655.107 8
 90  2 28  9  5 59.0800000  0  4G 3G12G19G13
  20512731.829    20512735.526    24119101.686 9 -55097282.075 8
  22045844.594    22045852.983    59369056.531 9 -71796822.465 9
  21899972.589    21899976.659    15610802.724 9 -24918784.026 8
  21168720.425    21168725.093    78071581.156 9-126508018.385 8
 90  2 28  9  6 14.0800000  0  4G 3G12G19G13
  20510026.050    20510030.680    24104882.470 9 -55108361.989 8
  22054649.617    22054655.933    59415323.669 9 -71760770.221 8
  21902199.142    21902203.899    15622502.550 9 -24909667.300 9
  21171809.864    21171814.190    78087813.964 9-126495369.445 9
 90  2 28  9  6 29.0800000  0  4G 3G12G19G13
  20507324.977    20507329.747    24090691.107 9 -55119420.185 8
  22063462.426    22063468.550    59461635.667 9 -71724683.007 8
  21904448.899    21904452.996    15634316.240 9 -24900461.856 8
  21174902.283    21174905.791    78104062.340 9-126482708.391 9
 90  2 28  9  6 44.0800000  0  4G 3G12G19G13
  20504629.918    20504634.504    24076527.422 8 -55130456.820 7
  22072283.624    22072289.737    59507992.018 9 -71688561.226 8
  21906717.786    21906721.440    15646243.620 9 -24891167.811 8
  21177995.644    21178001.399    78120326.264 9-126470035.215 8
 90  2 28  9  6 59.0800000  0  4G 3G12G19G13
  20501939.876    20501943.213    24062391.403 9 -55141471.907 9
  22081113.133    22081120.480    59554392.097 9 -71652405.366 9
  21909008.888    21909013.659    15658284.322 9 -24881785.473 8
  21181094.585    21181099.411    78136605.637 9-126457349.994 8
 90  2 28  9  7 14.0800000  0  4G 3G12G19G13
  20499255.705    20499259.149    24048283.217 9 -55152465.293 8
  22089951.910    22089957.211    59600835.715 9 -71616215.593 8
  21911320.674    21911324.909    15670438.000 9 -24872315.090 8
  21184194.672    21184198.825    78152900.471 8-126444652.753 8
 90  2 28  9  7 29.0800000  0  4G 3G12G19G13
  20496576.390    20496580.193    24034202.774 9 -55163437.069 8
  22098797.921    22098803.862    59647322.488 9 -71579992.185 9
  21913655.707    21913659.490    15682704.424 8 -24862756.873 9
  21187297.820    21187302.832    78169210.783 9-126431943.431 9
 90  2 28  9  7 44.0800000  0  4G 3G12G19G13
  20493901.155    20493906.080    24020149.837 9 -55174387.400 8
  22107651.126    22107659.000    59693851.714 8 -71543735.709 9
  21916010.992    21916016.249    15695083.269 9 -24853111.039 8
  21190404.804    21190409.500    78185536.406 9-126419222.173 8
 90  2 28  9  7 59.0800000  0  4G 3G12G19G13
  20491233.080    20491237.054    24006124.537 9 -55185316.210 9
  22116514.143    22116520.900    59740423.166 9 -71507446.315 9
  21918388.565    21918392.958    15707574.589 9 -24843377.563 8
  21193514.563    21193519.116    78201877.486 9-126406488.885 9
 90  2 28  9  8 14.0800000  0  4G 3G12G19G13
  20488570.147    20488573.016    23992126.849 8 -55196223.504 8
  22125385.600    22125390.653    59787036.270 8 -71471124.472 9
  21920787.052    21920792.179    15720177.855 9 -24833556.869 8
  21196626.697    21196632.282    78218234.133 8-126393743.454 8
 90  2 28  9  8 29.0800000  0  4G 3G12G19G13
  20485910.395    20485914.074    23978156.753 9 -55207109.290 8
  22134261.821    22134269.096    59833690.683 9 -71434770.434 9
  21923206.243    21923211.112    15732892.767 9 -24823649.160 7
  21199742.754    21199746.779    78234606.465 9-126380985.802 9
 90  2 28  9  8 44.0800000  0  4G 3G12G19G13
  20483256.891    20483261.987    23964214.503 9 -55217973.369 9
  22143148.040    22143155.480    59880386.177 8 -71398384.405 8
  21925646.718    21925651.603    15745719.374 9 -24813654.434 7
  21202861.013    21202865.037    78250994.598 9-126368215.836 8
 90  2 28  9  8 59.0800000  0  4G 3G12G19G13
  20480608.896    20480613.996    23950300.054 8 -55228815.804 8
  22152041.403    22152049.055    59927122.111 9 -71361966.849 8
  21928108.932    21928113.930    15758657.368 9 -24803572.894 8
  21205983.050    21205987.905    78267398.364 9-126355433.701 8
 90  2 28  9  9 14.0800000  0  4G 3G12G19G13
  20477967.950    20477972.048    23936413.445 9 -55239636.532 8
  22160942.613    22160949.014    59973898.088 8 -71325518.111 7
  21930591.870    21930596.531    15771706.508 9 -24793404.759 9
  21209107.748    21209112.373    78283817.977 9-126342639.227 8
 90  2 28  9  9 29.0800000  0  4G 3G12G19G13
  20475330.268    20475333.056    23922554.689 8 -55250435.572 8
  22169850.703    22169858.788    60020713.799 9 -71289038.419 8
  21933096.221    21933100.154    15784866.535 9 -24783150.203 8
  21212235.366    21212240.062    78300253.433 9-126329832.380 8
 90  2 28  9  9 44.0800000  0  4G 3G12G19G13
  20472698.525    20472702.275    23908723.632 9 -55261213.015 9
  22178768.205    22178775.971    60067568.794 9 -71252528.100 8
  21935621.680    21935626.127    15798136.962 8 -24772809.646 7
  21215365.759    21215370.112    78316704.778 9-126317013.153 9
 90  2 28  9  9 59.0800000  0  4G 3G12G19G13
  20470070.495    20470075.353    23894920.252 9 -55271968.887 7
  22187691.228    22187698.166    60114462.551 9 -71215987.562 8
  21938167.887    21938172.958    15811517.739 9 -24762383.073 8
  21218499.673    21218504.698    78333172.013 8-126304181.551 9
 90  2 28  9 10 14.0800000  0  4G 3G12G19G13
  20467450.207    20467454.732    23881144.661 9 -55282703.109 8
  22196622.801    22196629.416    60161394.549 9 -71179417.236 8
  21940735.600    21940739.626    15825008.575 9 -24751870.753 8
  21221635.589    21221640.199    78349655.161 9-126291337.554 8
 90  2 28  9 10 29.0800000  0  4G 3G12G19G13
  20464834.079    20464837.461    23867396.664 9 -55293415.832 8
  22205560.545    22205567.958    60208364.466 9 -71142817.368 8
  21943323.683    21943328.782    15838609.228 9 -24741272.884 8
  21224775.513    21224779.837    78366154.169 9-126278481.209 9
 90  2 28  9 10 44.0800000  0  4G 3G12G19G13
  20462223.080    20462226.693    23853676.521 8 -55304106.859 8
  22214506.183    22214513.630    60255371.802 9 -71106188.343 7
  21945932.126    21945937.205    15852319.219 8 -24730589.777 8
  21227917.496    21227922.694    78382669.139 8-126265612.424 8
 90  2 28  9 10 59.0800000  0  4G 3G12G19G13
  20459616.966    20459621.804    23839984.149 9 -55314776.229 8
  22223457.063    22223466.010    60302416.214 9 -71069530.430 8
  21948561.528    21948567.415    15866138.550 9 -24719821.488 9
  21231063.916    21231068.829    78399200.070 9-126252731.187 8
 90  2 28  9 11 14.0800000  0  4G 3G12G19G13
  20457017.693    20457021.713    23826319.475 8 -55325424.020 8
  22232418.154    22232424.802    60349497.169 9 -71032844.028 8
  21951212.993    21951218.350    15880066.943 8 -24708968.226 8
  21234213.026    21234217.766    78415746.943 9-126239837.534 8
 90  2 28  9 11 29.0800000  0  4G 3G12G19G13
  20454421.773    20454426.161    23812682.686 9 -55336050.101 8
  22241383.808    22241390.731    60396614.459 9 -70996129.319 9
  21953883.647    21953888.974    15894104.185 9 -24698030.158 8
  21237364.311    21237368.664    78432309.899 9-126226931.346 8
 90  2 28  9 11 44.0800000  0  4G 3G12G19G13
  20451832.762    20451836.209    23799073.944 9 -55346654.326 8
  22250357.303    22250363.142    60443767.674 9 -70959386.616 7
  21956575.536    21956581.063    15908250.084 8 -24687007.393 8
  21240520.175    21240523.284    78448889.299 9-126214012.343 8
 90  2 28  9 11 59.0800000  0  4G 3G12G19G13
  20449247.737    20449252.580    23785493.206 9 -55357236.715 9
  22259336.897    22259343.597    60490956.345 9 -70922616.278 8
  21959289.468    21959293.751    15922504.429 8 -24675900.137 8
  21243677.985    21243682.066    78465484.775 9-126201080.820 8
 90  2 28  9 12 14.0800000  0  4G 3G12G19G13
  20446668.807    20446674.168    23771940.374 9 -55367797.352 8
  22268323.185    22268329.802    60538179.917 9 -70885818.754 8
  21962022.080    21962026.228    15936866.745 9 -24664708.739 8
  21246838.170    21246842.837    78482096.467 9-126188136.652 9
 90  2 28  9 12 29.0800000  0  4G 3G12G19G13
  20444095.646    20444099.369    23758415.462 9 -55378336.263 8
  22277315.277    22277322.944    60585438.142 9 -70848994.242 8
  21964774.725    21964779.073    15951336.986 9 -24653433.250 8
  21250003.392    21250007.688    78498724.652 9-126175179.630 8
 90  2 28  9 12 44.0800000  0  4G 3G12G19G13
  20441527.310    20441530.560    23744918.610 9 -55388853.271 8
  22286315.552    22286322.825    60632730.623 9 -70812143.025 8
  21967549.693    21967553.861    15965914.536 8 -24642074.156 8
  21253170.503    21253174.297    78515369.268 8-126162209.816 8
 90  2 28  9 12 59.0800000  0  4G 3G12G19G13
  20438964.995    20438968.106    23731449.654 9 -55399348.562 8
  22295321.898    22295328.312    60680056.744 9 -70775265.597 8
  21970343.233    21970348.097    15980599.066 9 -24630631.670 8
  21256341.161    21256345.600    78532029.986 9-126149227.437 8
 90  2 28  9 13 14.0800000  0  4G 3G12G19G13
  20436406.008    20436410.267    23718008.703 8 -55409822.042 8
  22304333.376    22304340.638    60727416.151 9 -70738362.220 9
  21973158.031    21973163.424    15995390.717 8 -24619105.749 8
  21259515.026    21259519.480    78548707.039 9-126136232.336 9
 90  2 28  9 13 29.0800000  0  4G 3G12G19G13
  20433853.565    20433858.452    23704595.667 9 -55420273.744 7
  22313351.648    22313359.064    60774808.367 9 -70701433.284 9
  21975993.133    21975998.504    16010289.202 9 -24607496.551 8
  21262690.580    21262696.150    78565400.601 9-126123224.378 8
 90  2 28  9 13 44.0800000  0  4G 3G12G19G13
  20431306.380    20431311.155    23691210.509 8 -55430703.734 8
  22322376.692    22322383.099    60822232.866 9 -70664479.186 9
  21978848.977    21978853.496    16025293.998 9 -24595804.527 9
  21265870.598    21265875.896    78582110.604 9-126110203.615 9
 90  2 28  9 13 59.0800000  0  4G 3G12G19G13
  20428764.903    20428769.052    23677853.242 9 -55441111.982 9
  22331407.420    22331414.030    60869689.141 9 -70627500.343 9
  21981724.330    21981728.356    16040404.720 9 -24584029.966 8
  21269053.391    21269058.303    78598837.144 9-126097169.955 8
 90  2 28  9 14 14.0800000  0  4G 3G12G19G13
  20426228.685    20426233.653    23664523.895 9 -55451498.489 8
  22340444.064    22340451.634    60917176.887 9 -70590496.985 9
  21984620.919    21984624.817    16055621.357 9 -24572172.874 8
  21272240.564    21272244.073    78615580.344 9-126084123.294 8
 90  2 28  9 14 29.0800000  0  4G 3G12G19G13
  20423697.316    20423701.652    23651222.681 9 -55461863.076 8
  22349486.644    22349494.547    60964695.841 9 -70553469.296 9
  21987535.602    21987540.745    16070943.748 9 -24560233.363 8
  21275429.482    21275433.463    78632340.325 9-126071063.566 9
 90  2 28  9 14 44.0800000  0  4G 3G12G19G13
  20421170.675    20421176.942    23637949.768 9 -55472205.600 8
  22358536.061    22358543.426    61012245.589 9 -70516417.612 9
  21990470.739    21990475.939    16086371.544 8 -24548211.746 8
  21278621.290    21278626.059    78649117.067 9-126057990.804 8
 90  2 28  9 14 59.0800000  0  4G 3G12G19G13
  20418651.946    20418655.476    23624705.048 9 -55482526.144 8
  22367591.100    22367597.468    61059825.797 9 -70479342.186 9
  21993427.134    21993432.655    16101904.486 8 -24536108.174 8
  21281817.536    21281821.715    78665910.624 9-126044904.927 7
 90  2 28  9 15 14.0800000  0  4G 3G12G19G13
  20416136.387    20416140.170    23611488.386 8 -55492824.844 8
  22376651.076    22376656.026    61107435.847 8 -70442243.519 9
  21996402.552    21996408.144    16117542.338 8 -24523922.864 8
  21285016.870    21285020.936    78682720.820 8-126031806.070 8
 90  2 28  9 15 29.0800000  0  4G 3G12G19G13
  20413626.280    20413630.535    23598299.657 9 -55503101.757 9
  22385715.136    22385722.664    61155075.216 9 -70405121.996 9
  21999398.668    21999404.268    16133284.483 9 -24511656.280 8
  21288218.724    21288224.020    78699547.745 9-126018694.193 8
 90  2 28  9 15 44.0800000  0  4G 3G12G19G13
  20411122.131    20411125.958    23585138.970 8 -55513356.842 9
  22394785.828    22394793.875    61202743.539 8 -70367977.916 9
  22002413.857    22002418.693    16149130.547 9 -24499308.727 8
  21291423.610    21291428.508    78716391.296 9-126005569.356 8
 90  2 28  9 15 59.0800000  0  4G 3G12G19G13
  20408623.954    20408627.627    23572006.315 9 -55523590.084 8
  22403862.591    22403869.245    61250440.239 9 -70330811.734 8
  22005448.896    22005454.024    16165080.401 9 -24486880.291 7
  21294632.475    21294637.116    78733251.513 9-125992431.537 8
 90  2 28  9 16 14.0800000  0  4G 3G12G19G13
  20406129.833    20406133.449    23558901.768 9 -55533801.415 8
  22412945.166    22412951.937    61298164.991 8 -70293623.713 9
  22008504.424    22008508.728    16181133.914 9 -24474371.080 7
  21297844.117    21297848.040    78750128.721 9-125979280.486 8
 90  2 28  9 16 29.0800000  0  4G 3G12G19G13
  20403637.984    20403645.026    23545825.412 1 -55543990.778 1
  22422030.811    22422038.995    61345917.431 9 -70256414.108 9
  22011578.060    22011584.488    16197290.701 8 -24461781.387 8
  21301057.984    21301064.415    78767023.009 4-125966116.098 5
 90  2 28  9 16 44.0800000  0  4G 3G12G19G13
  20401159.653    20401161.864    23532777.403 1 -55554158.059 1
  22431123.315    22431130.941    61393697.051 8 -70219183.314 9
  22014672.678    22014677.907    16213550.378 9 -24449111.527 8
  21304275.652    21304281.303    78783934.353 4-125952938.437 5
 90  2 28  9 16 59.0800000  0  4G 3G12G19G13
  20398681.302    20398685.100    23519757.326 1 -55564303.574 1
  22440220.484    22440228.640    61441503.442 9 -70181931.679 9
  22017786.215    22017792.260    16229913.051 9 -24436361.422 7
  21307498.042    21307502.635    78800862.516 6-125939747.666 3
 90  2 28  9 17 14.0800000  0  4G 3G12G19G13
  20396207.787    20396211.885    23506765.752 8 -55574426.865 9
  22449322.420    22449330.748    61489336.249 9 -70144659.448 9
  22020918.784    22020924.897    16246378.195 8 -24423531.481 8
  21310722.964    21310727.930    78817807.767 5-125926543.600 5
 90  2 28  9 17 29.0800000  0  4G 3G12G19G13
  20393742.249    20393744.704    23493802.518 9 -55584528.102 8
  22458428.990    22458437.447    61537195.083 9 -70107366.940 9
  22024072.588    22024078.808    16262945.686 9 -24410621.766 8
  21313951.433    21313955.301    78834770.324 6-125913326.052 6
 90  2 28  9 17 44.0800000  0  4G 3G12G19G13
  20391279.919    20391284.683    23480867.585 9 -55594607.262 8
  22467541.570    22467550.456    61585079.475 9 -70070054.501 8
  22027245.021    22027250.148    16279615.193 9 -24397632.552 8
  21317181.117    21317185.260    78851750.039 4-125900095.109 4
 90  2 28  9 17 59.0800000  0  4G 3G12G19G13
  20388823.602    20388826.067    23467960.700 1 -55604664.579 1
  22476658.670    22476667.583    61632988.878 9 -70032722.576 8
  22030437.136    22030439.779    16296386.490 2 -24384564.035 1
  21320415.952    21320418.755    78868746.788 9-125886850.906 8
 90  2 28  9 18 14.0800000  0  4G 3G12G19G13
  20386372.713    20386378.595    23455082.322 1 -55614699.683 1
  22485780.437    22485787.876    61680923.035 9 -69995371.368 9
  22033646.589    22033652.977    16313258.952 2 -24371416.691 1
  21323653.457    21323658.551    78885760.930 9-125873593.151 7
 90  2 28  9 18 29.0800000  0  4G 3G12G19G13
  20383928.487    20383932.663    23442232.458 9 -55624712.555 8
  22494906.696    22494915.317    61728881.707 9 -69958001.054 8
  22036876.759    22036882.125    16330232.615 8 -24358190.477 8
  21326894.814    21326899.704    78902792.665 9-125860321.672 7
 90  2 28  9 18 44.0800000  0  4G 3G12G19G13
  20381487.614    20381491.858    23429410.957 9 -55634703.337 8
  22504038.335    22504046.013    61776864.283 9 -69920612.105 9
  22040125.303    22040130.840    16347306.632 9 -24344886.080 7
  21330138.387    21330143.551    78919841.663 8-125847036.745 8
 90  2 28  9 18 59.0800000  0  4G 3G12G19G13
  20379053.813    20379057.736    23416617.889 9 -55644671.969 8
  22513173.438    22513181.117    61824870.254 9 -69883204.933 8
  22043393.544    22043398.895    16364481.112 7 -24331503.389 8
  21333386.389    21333391.839    78936907.898 9-125833738.401 8
 90  2 28  9 19 14.0800000  0  4G 3G12G19G13
  20376624.405    20376629.116    23403853.326 9 -55654618.372 8
  22522313.520    22522320.627    61872899.256 9 -69845779.824 8
  22046681.896    22046686.510    16381755.751 9 -24318042.659 8
  21336637.442    21336643.036    78953991.870 9-125820426.214 8
 90  2 28  9 19 29.0800000  0  4G 3G12G19G13
  20374200.880    20374205.106    23391117.296 9 -55664542.559 7
  22531457.523    22531464.357    61920950.802 9 -69808337.137 9
  22049987.562    22049992.684    16399130.367 9 -24304504.022 8
  21339892.269    21339896.467    78971093.447 9-125807100.329 7
 90  2 28  9 19 44.0800000  0  4G 3G12G19G13
  20371782.865    20371786.870    23378409.833 9 -55674444.476 8
  22540604.903    22540612.639    61969024.453 9 -69770877.218 7
  22053313.218    22053318.090    16416604.579 9 -24290887.767 8
  21343149.613    21343154.272    78988212.505 9-125793760.820 8
 90  2 28  9 19 59.0800000  0  4G 3G12G19G13
  20369369.813    20369373.293    23365730.321 9 -55684324.609 7
  22549756.862    22549764.011    62017119.536 9 -69733400.597 8
  22056656.940    22056662.669    16434177.962 8 -24277194.242 8
  21346411.357    21346415.230    79005348.993 9-125780407.691 8
 90  2 28  9 20 14.0800000  0  4G 3G12G19G13
  20366961.866    20366965.936    23353079.229 9 -55694182.603 8
  22558913.657    22558921.536    62065235.694 9 -69695907.564 8
  22060020.422    22060025.223    16451850.285 8 -24263423.647 9
  21349675.177    21349679.476    79022502.883 8-125767041.052 9
 90  2 28  9 20 29.0800000  0  4G 3G12G19G13
  20364560.415    20364563.678    23340456.768 9 -55704018.277 8
  22568073.201    22568083.797    62113372.847 9 -69658398.153 7
  22063401.777    22063407.320    16469621.423 9 -24249576.029 8
  21352942.874    21352948.097    79039674.572 9-125753660.519 7
 90  2 28  9 20 44.0800000  0  4G 3G12G19G13
  20362164.455    20362167.661    23327862.892 9 -55713831.695 8
  22577238.925    22577244.699    62161530.444 9 -69620872.823 8
  22066802.420    22066807.892    16487490.716 9 -24235651.934 8
  21356214.634    21356218.325    79056863.820 9-125740266.305 8
 90  2 28  9 20 59.0800000  0  4G 3G12G19G13
  20359773.067    20359776.228    23315297.468 9 -55723622.936 7
  22586406.681    22586414.131    62209707.881 9 -69583332.040 8
  22070221.166    22070226.194    16505457.864 8 -24221651.569 8
  21359488.180    21359492.633    79074070.629 9-125726858.412 8
 90  2 28  9 21 14.0800000  0  3G 3G19G13
  20357388.383    20357391.253    23302760.582 9 -55733391.934 8
  22073659.185    22073663.942    16523522.901 9 -24207574.938 8
  21362765.926    21362769.747    79091295.367 8-125713436.553 8
 90  2 28  9 21 29.0800000  0  3G 3G19G13
  20355006.932    20355010.905    23290252.200 9 -55743138.734 9
  22077115.634    22077120.326    16541685.333 8 -24193422.420 8
  21366046.982    21366052.271    79108537.992 9-125700000.750 8
 90  2 28  9 21 44.0800000  0  4G 3G16G19G13
  20352632.107    20352635.658    23277772.555 9 -55752863.120 7
                  22615308.652   -15738668.398 9
  22080590.335    22080594.927    16559944.895 9 -24179194.230 8
  21369331.838    21369336.860    79125798.591 9-125686550.949 8
 90  2 28  9 21 59.0800000  0  4G 3G16G19G13
  20350263.163    20350267.623    23265321.734 9 -55762565.057 7
                  22624964.781   -15814860.174 9
  22084083.652    22084088.108    16578301.603 9 -24164890.315 9
  21372620.173    21372623.314    79143077.303 9-125673087.024 8
 90  2 28  9 22 14.0800000  0  4G 3G16G19G13
  20347899.231    20347902.162    23252899.842 9 -55772244.449 8
                  22634319.243   -15891873.585 9
  22087594.762    22087599.956    16596755.203 9 -24150510.915 8
  21375910.629    21375915.426    79160374.268 9-125659608.874 8
 90  2 28  9 22 29.0800000  0  4G 3G16G19G13
  20345540.360    20345543.989    23240506.707 9 -55781901.436 9
                  22642778.921   -16012376.715 9
  22091124.674    22091129.983    16615304.973 9 -24136056.573 8
  21379206.089    21379210.067    79177689.464 8-125646116.523 8
 90  2 28  9 22 44.0800000  0  4G 3G16G19G13
  20343187.822    20343191.322    23228142.623 8 -55791535.789 8
                  22671222.676   -15963302.265 9
  22094673.010    22094677.568    16633950.716 8 -24121527.450 8
  21382504.140    21382509.398    79195022.887 9-125632609.982 8
 90  2 28  9 22 59.0800000  0  4G 3G16G19G13
  20340839.712    20340845.330    23215807.305 9 -55801147.709 8
                  22701224.504   -15914207.333 9
  22098239.240    22098243.869    16652691.935 9 -24106923.937 8
  21385806.523    21385811.234    79212374.354 9-125619089.366 8
 90  2 28  9 23 14.0800000  0  4G 3G16G19G13
  20338499.127    20338502.256    23203500.973 9 -55810737.070 8
                  22731583.831   -15865091.919 9
  22101823.928    22101828.379    16671528.191 9 -24092246.358 8
  21389111.978    21389116.452    79229743.964 9-125605554.610 8
 90  2 28  9 23 29.0800000  0  4G 3G16G19G13
  20336162.723    20336166.724    23191223.616 9 -55820303.844 7
                  22762148.294   -15815956.025 9
  22105426.217    22105431.269    16690459.647 9 -24077494.597 8
  21392420.533    21392425.397    79247132.129 9-125592005.404 8
 90  2 28  9 23 44.0800000  0  4G 3G16G19G13
  20333831.957    20333836.129    23178975.193 9 -55829848.058 8
                  22792778.941   -15766799.649 9
  22109047.565    22109052.668    16709486.062 9 -24062668.843 8
  21395733.164    21395738.110    79264538.668 8-125578441.874 8
 90  2 28  9 23 59.0800000  0  4G 3G16G19G13
  20331505.996    20331510.326    23166756.023 9 -55839369.498 8
                  22823031.778   -15717622.792 9
  22112685.262    22112691.129    16728607.116 9 -24047769.342 8
  21399048.445    21399053.611    79281963.639 9-125564863.957 8
 90  2 28  9 24 14.0800000  0  3G 3G19G13
  20329186.877    20329191.480    23154566.084 8 -55848868.147 8
  22116342.046    22116347.491    16747822.521 9 -24032796.332 8
  21402368.067    21402373.296    79299407.236 9-125551271.560 8
 90  2 28  9 24 29.0800000  0  3G 3G19G13
  20326872.884    20326877.307    23142405.469 9 -55858343.945 9
  22120016.261    22120020.969    16767132.048 9 -24017749.970 8
  21405691.806    21405696.064    79316869.771 9-125537664.416 9
 90  2 28  9 24 44.0800000  0  3G 3G19G13
  20324564.271    20324568.972    23130274.008 9 -55867797.039 7
  22123709.999    22123713.777    16786534.916 9 -24002630.885 8
  21409017.824    21409022.302    79334351.036 9-125524042.658 8
 90  2 28  9 24 59.0800000  0  3G 3G19G13
  20322261.320    20322264.979    23118171.524 9 -55877227.551 9
  22127419.686    22127424.342    16806030.741 9 -23987439.360 8
  21412348.092    21412352.550    79351850.803 9-125510406.472 8
 90  2 28  9 25 14.0800000  0  4G 3G16G19G13
  20319963.903    20319967.248    23106098.183 9 -55886635.339 8
                  22569169.777   -16929995.104 9
  22131146.752    22131150.912    16825619.260 9 -23972175.602 8
  21415682.322    21415686.080    79369369.253 8-125496755.765 8
 90  2 28  9 25 29.0800000  0  4G 3G16G19G13
  20317672.504    20317676.193    23094054.136 9 -55896020.312 8
                  22558317.902   -16987216.951 8
  22134890.934    22134896.720    16845300.333 9 -23956839.738 8
  21419018.480    21419023.103    79386906.440 9-125483090.434 8
 90  2 28  9 25 44.0800000  0  4G 3G16G19G13
  20315385.448    20315388.974    23082039.329 9 -55905382.504 8
  22547431.838    22547438.849   -17044421.147 8  21653055.806 8
  22138654.881    22138659.612    16865073.694 8 -23941431.936 7
  21422360.130    21422365.045    79404462.354 9-125469410.528 9
 90  2 28  9 25 59.0800000  0  4G 3G16G19G13
  20313105.421    20313108.699    23070053.893 9 -55914721.793 8
  22536550.258    22536556.782   -17101607.102 9  21608495.363 9
  22142434.401    22142439.136    16884938.818 9 -23925952.642 8
  21425704.318    21425708.156    79422037.047 8-125455715.971 9
 90  2 28  9 26 14.0800000  0  4G 3G16G19G13
  20310829.582    20310834.262    23058097.732 9 -55924038.279 9
  22525671.701    22525678.088   -17158774.218 9  21563949.603 9
  22146232.834    22146237.344    16904895.493 9 -23910402.036 7
  21429052.195    21429057.230    79439630.638 9-125442006.704 8
 90  2 28  9 26 29.0800000  0  4G 3G16G19G13
  20308560.373    20308564.982    23046171.187 9 -55933331.690 7
  22514797.292    22514803.870   -17215922.202 9  21519418.761 9
  22150047.509    22150053.904    16924943.562 9 -23894780.187 7
  21432403.126    21432408.497    79457243.421 9-125428282.460 9
 90  2 28  9 26 44.0800000  0  4G 3G16G19G13
  20306296.496    20306299.502    23034273.916 9 -55942602.287 7
  22503925.466    22503933.393   -17273050.844 9  21474902.983 9
  22153879.578    22153885.137    16945082.650 9 -23879087.409 8
  21435758.835    21435764.659    79474875.261 8-125414543.397 8
 90  2 28  9 26 59.0800000  0  4G 3G16G19G13
  20304038.010    20304041.545    23022406.057 9 -55951849.967 8
  22493058.315    22493064.422   -17330159.814 9  21430402.536 9
  22157729.285    22157734.253    16965312.372 9 -23863324.020 8
  21439118.001    21439123.142    79492526.053 9-125400789.543 8
 90  2 28  9 27 14.0800000  0  4G 3G16G19G13
  20301784.713    20301789.045    23010567.711 9 -55961074.656 8
  22482194.742    22482200.745   -17387248.585 9  21385917.831 8
  22161596.189    22161600.736    16985632.503 9 -23847490.197 8
  21442479.105    21442485.658    79510196.096 9-125387020.693 9
 90  2 28  9 27 29.0800000  0  4G 3G16G19G13
  20299538.379    20299542.158    22998759.327 9 -55970275.975 7
  22471334.988    22471340.705   -17444316.752 9  21341449.159 8
  22165479.227    22165484.786    17006042.809 9 -23831586.073 8
  21445846.557    21445850.726    79527885.656 9-125373236.624 9
 90  2 28  9 27 44.0800000  0  4G 3G16G19G13
  20297297.168    20297301.143    22986980.658 9 -55979454.153 8
  22460478.158    22460485.255   -17501363.864 9  21296996.903 8
  22169381.086    22169385.730    17026542.971 9 -23815611.953 8
  21449215.985    21449221.080    79545594.776 9-125359437.329 9
 90  2 28  9 27 59.0800000  0  4G 3G16G19G13
  20295060.938    20295064.821    22975231.742 9 -55988609.148 8
  22449627.395    22449632.857   -17558389.716 9  21252561.217 9
  22173298.913    22173304.487    17047132.681 8 -23799568.047 7
  21452589.181    21452594.990    79563323.207 9-125345622.997 8
 90  2 28  9 28 14.0800000  0  4G 3G16G19G13
  20292831.022    20292833.741    22963512.654 9 -55997740.911 8
  22438779.339    22438786.227   -17615393.821 9  21208142.470 9
  22177233.775    22177239.989    17067811.565 8 -23783454.673 7
  21455967.134    21455972.910    79581071.118 8-125331793.476 8
 90  2 28  9 28 29.0800000  0  4G 3G16G19G13
  20290605.684    20290610.775    22951823.436 9 -56006849.399 8
  22427935.466    22427942.749   -17672375.954 9  21163740.840 9
  22181185.643    22181191.427    17088579.206 8 -23767272.107 8
  21459347.782    21459353.739    79598838.711 9-125317948.597 8
 90  2 28  9 28 44.0800000  0  4G 3G16G19G13
  20288388.408    20288391.477    22940164.142 9 -56015934.553 8
  22417096.818    22417104.585   -17729335.699 8  21119356.657 8
  22185155.131    22185160.241    17109435.173 9 -23751020.756 8
  21462733.538    21462739.067    79616625.942 9-125304088.412 8
 90  2 28  9 28 59.0800000  0  4G 3G16G19G13
  20286175.196    20286178.002    22928534.807 9 -56024996.375 8
  22406262.146    22406268.640   -17786272.728 9  21074990.180 8
  22189140.126    22189145.588    17130379.251 8 -23734700.709 8
  21466121.571    21466126.822    79634432.804 9-125290212.949 9
 90  2 28  9 29 14.0800000  0  4G 3G16G19G13
  20283967.831    20283970.423    22916935.585 9 -56034034.727 8
  22395431.606    22395438.079   -17843186.599 9  21030641.751 8
  22193141.799    22193148.303    17151411.208 8 -23718312.210 7
  21469514.296    21469519.539    79652259.614 8-125276321.942 8
 90  2 28  9 29 29.0800000  0  4G 3G16G19G13
  20281765.284    20281769.817    22905366.437 9 -56043049.639 8
  22384606.168    22384611.989   -17900076.954 9  20986311.648 9
  22197162.145    22197167.252    17172530.765 8 -23701855.449 7
  21472910.722    21472914.929    79670106.343 8-125262415.405 8
 90  2 28  9 29 44.0800000  0  4G 3G16G19G13
  20279568.861    20279573.552    22893827.414 9 -56052041.063 8
  22373784.510    22373790.441   -17956943.541 9  20942000.054 8
  22201196.471    22201202.710    17193737.437 9 -23685330.784 8
  21476310.042    21476314.881    79687972.987 9-125248493.374 9
 90  2 28  9 29 59.0800000  0  4G 3G16G19G13
  20277380.748    20277383.095    22882318.643 9 -56061008.929 8
  22362967.934    22362973.856   -18013785.999 9  20897707.264 8
  22205247.714    22205255.531    17215030.766 8 -23668738.608 7
  21479713.774    21479718.977    79705859.696 9-125234555.666 8
 90  2 28  9 30 14.0800000  0  4G 3G16G19G13
  20275195.810    20275199.775    22870840.047 9 -56069953.295 7
  22352155.770    22352161.968   -18070604.025 9  20853433.525 8
  22209317.281    22209321.808    17236410.675 7 -23652078.961 7
  21483120.788    21483126.486    79723766.289 9-125220602.494 8
 90  2 28  9 30 29.0800000  0  4G 3G16G19G13
  20273016.158    20273020.800    22859391.810 8 -56078873.980 8
  22341349.127    22341355.213   -18127397.054 9  20809179.262 8
  22213401.954    22213409.409    17257877.053 9 -23635351.939 7
  21486532.918    21486537.088    79741692.923 9-125206633.718 9
 90  2 28  9 30 44.0800000  0  4G 3G16G19G13
  20270845.109    20270848.068    22847973.894 9 -56087771.049 8
  22330545.446    22330550.853   -18184164.837 9  20764944.665 9
  22217502.664    22217508.968    17279429.329 8 -23618558.007 7
  21489948.395    21489953.034    79759639.827 9-125192649.130 8
 90  2 28  9 30 59.0800000  0  4G 3G16G19G13
  20268676.809    20268681.637    22836586.544 9 -56096644.313 9
  22319747.797    22319753.768   -18240906.952 8  20720730.060 9
  22221621.505    22221626.708    17301067.318 8 -23601697.248 8
  21493366.900    21493371.297    79777606.889 9-125178648.835 9
 90  2 28  9 31 14.0800000  0  4G 3G16G19G13
  20266516.474    20266520.730    22825229.684 9 -56105493.805 8
  22308955.525    22308961.939   -18297623.171 9  20676535.640 8
  22225755.169    22225761.529    17322790.492 8 -23584770.146 7
  21496789.437    21496794.231    79795594.394 9-125164632.594 8
 90  2 28  9 31 29.0800000  0  4G 3G16G19G13
  20264360.880    20264364.330    22813903.323 9 -56114319.531 8
  22298167.757    22298172.499   -18354313.038 9  20632361.777 9
  22229904.932    22229910.202    17344598.650 9 -23567776.791 8
  21500216.460    21500221.856    79813602.321 9-125150600.458 9
 90  2 28  9 31 44.0800000  0  4G 3G16G19G13
  20262211.525    20262214.402    22802607.443 9 -56123121.510 8
  22287384.470    22287390.689   -18410976.288 9  20588208.641 9
  22234070.659    22234075.942    17366491.390 9 -23550717.548 7
  21503646.915    21503652.228    79831630.396 9-125136552.611 9
 90  2 28  9 31 59.0800000  0  4G 3G16G19G13
  20260068.237    20260071.171    22791341.879 9 -56131899.857 7
  22276606.421    22276614.332   -18467612.788 9  20544076.347 8
  22238253.201    22238258.789    17388468.139 8 -23533592.849 7
  21507081.850    21507086.054    79849678.850 9-125122488.897 8
 90  2 28  9 32 14.0800000  0  4G 3G16G19G13
  20257929.928    20257932.972    22780106.948 9 -56140654.357 8
  22265834.833    22265840.268   -18524221.881 9  20499965.416 8
  22242451.098    22242457.131    17410528.639 9 -23516402.878 8
  21510520.153    21510524.878    79867747.767 9-125108409.222 8
 90  2 28  9 32 29.0800000  0  4G 3G16G19G13
  20255797.534    20255800.431    22768902.673 9 -56149384.952 8
  22255067.676    22255074.242   -18580803.315 9  20455876.048 9
  22246665.711    22246670.976    17432672.945 8 -23499147.605 7
  21513962.515    21513967.184    79885837.520 9-125094313.294 8
 90  2 28  9 32 44.0800000  0  4G 3G16G19G13
  20253671.331    20253674.423    22757729.321 9 -56158091.451 9
  22244305.645    22244311.576   -18637356.776 8  20411808.466 8
  22250894.106    22250898.262    17454900.304 8 -23481827.597 7
  21517408.954    21517413.318    79903947.995 9-125080201.230 8
 90  2 28  9 32 59.0800000  0  4G 3G16G19G13
  20251550.919    20251554.717    22746586.804 9 -56166773.922 8
  22233549.530    22233555.158   -18693881.697 9  20367763.127 9
  22255140.645    22255145.472    17477210.645 8 -23464442.958 7
  21520858.703    21520864.297    79922079.286 9-125066072.965 8
 90  2 28  9 33 14.0800000  0  4G 3G16G19G13
  20249436.459    20249439.303    22735474.975 9 -56175432.490 8
  22222797.758    22222804.199   -18750378.081 9  20323740.020 8
  22259401.824    22259407.858    17499603.351 8 -23446994.126 8
  21524313.069    21524318.799    79940231.220 8-125051928.610 8
 90  2 28  9 33 29.0800000  0  4G 3G16G19G13
  20247327.665    20247331.202    22724394.044 9 -56184066.966 7
  22212052.451    22212060.054   -18806845.243 9  20279739.681 8
  22263678.508    22263683.768    17522078.189 8 -23429481.301 7
  21527770.967    21527776.554    79958404.076 9-125037767.951 7
 90  2 28  9 33 44.0800000  0  4G 3G16G19G13
  20245225.722    20245227.998    22713344.176 9 -56192677.254 7
  22201312.579    22201320.261   -18863282.958 9  20235762.294 8
  22267970.304    22267977.102    17544634.905 8 -23411904.669 7
  21531233.952    21531238.839    79976597.929 9-125023590.924 8
 90  2 28  9 33 59.0800000  0  4G 3G16G19G13
  20243128.375    20243132.026    22702325.364 9 -56201263.345 8
  22190578.928    22190585.445   -18919690.874 9  20191808.143 9
  22272278.881    22272284.815    17567273.188 9 -23394264.458 6
  21534699.727    21534704.347    79994812.807 9-125009397.526 8
 90  2 28  9 34 14.0800000  0  4G 3G16G19G13
  20241037.383    20241040.236    22691337.808 9 -56209825.075 8
  22179850.389    22179856.525   -18976068.504 9  20147877.566 9
  22276602.210    22276607.425    17589993.075 8 -23376560.699 7
  21538169.974    21538175.931    80013048.713 9-124995187.753 8
 90  2 28  9 34 29.0800000  0  4G 3G16G19G13
  20238952.572    20238955.797    22680381.343 9 -56218362.577 8
  22169129.231    22169134.824   -19032415.533 8  20103970.854 8
  22280942.026    22280946.778    17612793.759 8 -23358793.947 7
  21541644.951    21541648.974    80031305.841 9-124980961.427 8
 90  2 28  9 34 44.0800000  0  4G 3G16G19G13
  20236873.236    20236877.740    22669456.232 9 -56226875.640 8
  22158410.972    22158418.290   -19088731.529 8  20060088.320 9
  22285296.404    22285300.326    17635675.219 8 -23340964.275 8
  21545123.159    21545127.707    80049584.213 9-124966718.559 8
 90  2 28  9 34 59.0800000  0  4G 3G16G19G13
  20234800.969    20234804.028    22658562.531 9 -56235364.237 8
  22147700.386    22147706.486   -19145016.167 9  20016230.200 9
  22289664.937    22289671.068    17658636.652 9 -23323072.273 8
  21548605.560    21548609.910    80067883.939 9-124952459.057 8
 90  2 28  9 35 14.0800000  0  4G 3G16G19G13
  20232732.537    20232737.194    22647700.310 9 -56243828.288 9
  22136995.916    22137002.813   -19201269.085 9  19972396.821 9
  22294049.731    22294055.147    17681678.013 9 -23305117.987 7
  21552091.220    21552096.144    80086205.189 9-124938182.771 8
 90  2 28  9 35 29.0800000  0  4G 3G16G19G13
  20230672.529    20230674.991    22636869.588 9 -56252267.814 8
  22126298.211    22126303.663   -19257489.832 9  19928588.502 9
  22298449.675    22298454.108    17704798.944 9 -23287101.707 8
  21555581.230    21555586.471    80104547.768 9-124923889.862 8
 90  2 28  9 35 44.0800000  0  4G 3G16G19G13
  20228616.889    20228620.238    22626070.232 9 -56260682.882 8
  22115605.884    22115611.629   -19313678.241 9  19884805.373 9
  22302863.716    22302869.958    17727998.984 8 -23269023.782 7
  21559076.255    21559081.517    80122911.718 9-124909580.290 8
 90  2 28  9 35 59.0800000  0  4G 3G16G19G13
  20226568.032    20226572.031    22615302.451 9 -56269073.378 8
  22104919.664    22104925.641   -19369834.162 9  19841047.559 8
  22307294.594    22307299.597    17751277.839 9 -23250884.450 7
  21562574.891    21562579.717    80141297.118 9-124895254.010 9
 90  2 28  9 36 14.0800000  0  4G 3G16G19G13
  20224524.775    20224529.752    22604566.200 9 -56277439.272 8
  22094240.879    22094245.878   -19425957.047 9  19797315.490 8
  22311739.610    22311744.915    17774635.100 8 -23232684.021 8
  21566078.088    21566082.671    80159704.036 8-124880910.963 8
 90  2 28  9 36 29.0800000  0  4G 3G16G19G13
  20222488.539    20222491.488    22593861.366 9 -56285780.696 8
  22083565.947    22083571.399   -19482046.703 9  19753609.319 9
  22316198.510    22316203.398    17798070.430 9 -23214422.743 6
  21569584.883    21569589.077    80178132.779 9-124866550.909 8
 90  2 28  9 36 44.0800000  0  4G 3G16G19G13
  20220457.854    20220461.414    22583188.231 9 -56294097.423 8
  22072898.686    22072905.484   -19538102.662 9  19709929.406 8
  22320673.720    22320678.414    17821583.429 9 -23196100.958 7
  21573096.025    21573101.354    80196583.272 9-124852173.899 8
 90  2 28  9 36 59.0800000  0  4G 3G16G19G13
  20218431.244    20218436.691    22572546.739 9 -56302389.466 8
  22062237.812    22062244.139   -19594124.827 9  19666275.827 9
  22325162.199    22325168.504    17845173.754 9 -23177718.913 7
  21576611.399    21576615.777    80215055.365 9-124837780.090 8
 90  2 28  9 37 14.0800000  0  4G 3G16G19G13
  20216413.294    20216416.711    22561937.288 9 -56310656.568 8
  22051584.986    22051589.853   -19650112.374 8  19622649.214 9
  22329665.972    22329672.539    17868841.200 8 -23159276.790 7
  21580130.261    21580135.181    80233549.508 9-124823369.075 8
 90  2 28  9 37 29.0800000  0  4G 3G16G19G13
  20214399.895    20214404.299    22551359.710 9 -56318898.836 9
  22040936.869    22040941.993   -19706065.010 9  19579049.808 9
  22334184.744    22334190.209    17892585.276 9 -23140774.941 7
  21583653.699    21583658.700    80252065.562 9-124808941.012 7
 90  2 28  9 37 44.0800000  0  4G 3G16G19G13
  20212393.833    20212397.884    22540814.038 9 -56327116.239 8
  22030295.620    22030302.640   -19761982.377 9  19535477.892 9
  22338716.834    22338722.948    17916405.767 8 -23122213.549 8
  21587181.001    21587187.010    80270603.891 8-124794495.561 8
 90  2 28  9 37 59.0800000  0  4G 3G16G19G13
  20210393.379    20210396.862    22530300.431 9 -56335308.657 7
  22019660.782    22019667.448   -19817864.160 9  19491933.697 8
  22343264.836    22343269.518    17940302.226 9 -23103592.965 7
  21590713.137    21590719.320    80289164.303 9-124780032.927 7
 90  2 28  9 38 14.0800000  0  4G 3G16G19G13
  20208398.678    20208402.141    22519819.111 9 -56343475.907 8
  22009034.893    22009040.638   -19873710.022 9  19448417.481 9
  22347826.768    22347831.264    17964274.608 9 -23084913.221 9
  21594250.204    21594254.409    80307746.960 9-124765552.929 8
 90  2 28  9 38 29.0800000  0  4G 3G16G19G13
  20206410.034    20206414.380    22509370.154 9 -56351617.946 9
  21998414.014    21998420.527   -19929519.501 9  19404929.635 8
  22352402.766    22352407.924    17988322.417 9 -23066174.694 7
  21597789.893    21597795.103    80326352.069 9-124751055.459 8
 90  2 28  9 38 44.0800000  0  4G 3G16G19G13
  20204427.953    20204431.531    22498953.559 9 -56359734.779 8
  21987801.039    21987806.741   -19985292.200 9  19361470.434 8
  22356993.016    22356998.596    18012445.305 9 -23047377.676 8
  21601334.093    21601338.892    80344979.487 8-124736540.575 8
 90  2 28  9 38 59.0800000  0  4G 3G16G19G13
  20202452.349    20202455.561    22488569.428 9 -56367826.313 8
  21977195.211    21977201.223   -20041027.635 9  19318040.271 9
  22361597.761    22361603.789    18036643.337 9 -23028522.107 8
  21604882.955    21604887.252    80363629.543 9-124722008.068 8
 90  2 28  9 39 14.0800000  0  4G 3G16G19G13
  20200482.508    20200485.128    22478218.034 8 -56375892.328 8
  21966595.527    21966601.344   -20096725.715 9  19274639.213 8
  22366217.065    22366221.962    18060915.740 9 -23009608.582 8
  21608436.650    21608441.977    80382302.241 9-124707457.934 8
 90  2 28  9 39 29.0800000  0  4G 3G16G19G13
  20198518.018    20198521.324    22467899.092 9 -56383933.063 8
  21956004.118    21956010.364   -20152385.981 9  19231267.626 9
  22370849.545    22370856.116    18085262.226 9 -22990637.321 7
  21611994.285    21612000.011    80400997.491 8-124692890.209 8
 90  2 28  9 39 44.0800000  0  4G 3G16G19G13
  20196560.072    20196564.323    22457612.849 9 -56391948.321 9
  21945419.852    21945425.396   -20208008.061 9  19187925.797 8
  22375496.347    22375502.221    18109682.525 9 -22971608.546 8
  21615556.014    21615561.200    80419715.439 8-124678304.782 8
 90  2 28  9 39 59.0800000  0  4G 3G16G19G13
  20194609.090    20194614.433    22447359.274 9 -56399938.115 8
  21934842.866    21934848.430   -20263591.686 8  19144613.939 8
  22380158.018    22380164.376    18134176.190 9 -22952522.611 8
  21619122.712    21619127.136    80438455.987 9-124663701.769 8
 90  2 28  9 40 14.0800000  0  4G 3G16G19G13
  20192665.148    20192668.531    22437138.525 9 -56407902.324 9
  21924272.654    21924277.915   -20319136.389 9  19101332.395 8
  22384833.169    22384839.513    18158742.905 9 -22933379.752 8
  21622693.199    21622697.649    80457219.290 9-124649081.032 8
 90  2 28  9 40 29.0800000  0  4G 3G16G19G13
  20190726.367    20190730.537    22426950.829 9 -56415840.773 8
  21913710.111    21913715.967   -20374641.826 9  19058081.464 8
  22389521.590    22389527.409    18183382.353 9 -22914180.212 7
  21626267.651    21626272.681    80476005.584 8-124634442.356 8
 90  2 28  9 40 44.0800000  0  4G 3G16G19G13
  20188793.405    20188796.478    22416795.974 9 -56423753.648 7
  21903155.040    21903160.643   -20430107.593 9  19014861.431 7
  22394224.112    22394229.896    18208094.137 9 -22894924.313 8
  21629847.637    21629851.961    80494814.838 9-124619785.814 8
 90  2 28  9 40 59.0800000  0  4G 3G16G19G13
  20186867.378    20186871.032    22406674.259 9 -56431640.680 7
  21892608.920    21892613.065   -20485533.290 9  18971672.617 8
  22398939.643    22398945.666    18232877.889 8 -22875612.343 8
  21633431.401    21633435.555    80513647.478 9-124605111.034 8
 90  2 28  9 41 14.0800000  0  4G 3G16G19G13
  20184947.790    20184951.626    22396585.918 9 -56439501.735 8
  21882069.187    21882075.151   -20540918.502 8  18928515.352 8
  22403669.987    22403676.735    18257733.225 9 -22856244.584 9
  21637019.510    21637023.158    80532503.366 9-124590418.148 7
 90  2 28  9 41 29.0800000  0  4G 3G16G19G13
  20183035.042    20183039.093    22386530.888 9 -56447336.803 7
  21871537.759    21871543.466   -20596262.840 8  18885389.957 9
  22408413.484    22408419.378    18282659.922 8 -22836821.215 9
  21640611.874    21640616.597    80551382.636 9-124575707.051 8
 90  2 28  9 41 44.0800000  0  4G 3G16G19G13
  20181127.703    20181130.075    22376509.029 9 -56455146.039 8
  21861013.771    21861018.660   -20651566.200 9  18842296.461 8
  22413171.078    22413175.803    18307657.629 8 -22817342.510 8
  21644208.677    21644213.236    80570285.248 9-124560977.761 8
 90  2 28  9 41 59.0800000  0  4G 3G16G19G13
  20179226.574    20179229.319    22366520.469 9 -56462929.343 8
  21850497.638    21850502.860   -20706828.273 9  18799235.158 8
  22417941.092    22417945.179    18332725.860 8 -22797808.868 7
  21647810.642    21647815.119    80589211.307 9-124546230.188 8
 90  2 28  9 42 14.0800000  0  4G 3G16G19G13
  20177332.438    20177335.850    22356565.261 9 -56470686.640 8
  21839988.876    21839993.820   -20762048.611 9  18756206.354 9
  22422725.250    22422730.268    18357864.217 9 -22778220.592 8
  21651416.659    21651419.808    80608160.687 8-124531464.456 8
 90  2 28  9 42 29.0800000  0  4G 3G16G19G13
  20175444.035    20175447.647    22346643.404 8 -56478417.944 8
  21829489.271    21829494.877   -20817227.032 9  18713210.223 9
  22427521.096    22427528.206    18383072.195 9 -22758578.062 8
  21655026.279    21655031.875    80627133.359 8-124516680.567 8
 90  2 28  9 42 44.0800000  0  4G 3G16G19G13
  20173562.710    20173565.907    22336755.041 9 -56486123.176 8
  21818995.836    21819002.628   -20872362.903 9  18670247.244 8
  22432331.428    22432337.468    18408349.931 9 -22738881.138 8
  21658641.043    21658645.924    80646129.540 9-124501878.348 8
 90  2 28  9 42 59.0800000  0  4G 3G16G19G13
  20171687.137    20171689.957    22326900.324 9 -56493802.161 8
  21808512.550    21808518.468   -20927456.239 9  18627317.419 8
  22437153.963    22437160.201    18433696.702 8 -22719130.456 9
  21662260.823    21662265.401    80665149.240 9-124487057.814 9
 90  2 28  9 43 14.0800000  0  4G 3G16G19G13
  20169818.146    20169821.692    22317079.222 9 -56501454.950 7
  21798036.781    21798042.290   -20982506.413 9  18584421.223 9
  22441991.048    22441997.231    18459111.815 7 -22699326.512 7
  21665884.618    21665889.548    80684192.556 8-124472218.872 7
 90  2 28  9 43 29.0800000  0  4G 3G16G19G13
  20167955.891    20167958.812    22307291.734 8 -56509081.578 9
  21787569.750    21787575.087   -21037513.237 9  18541558.802 9
  22446840.536    22446847.418    18484595.173 8 -22679469.384 7
  21669512.678    21669518.044    80703259.517 8-124457361.508 8
 90  2 28  9 43 44.0800000  0  4G 3G16G19G13
  20166098.339    20166103.968    22297537.999 9 -56516681.881 8
  21777110.291    21777117.095   -21092476.144 9  18498730.611 9
  22451702.250    22451708.897    18510146.589 9 -22659559.235 8
  21673145.725    21673150.805    80722350.426 8-124442485.488 8
 90  2 28  9 43 59.0800000  0  4G 3G16G19G13
  20164250.173    20164253.213    22287818.151 8 -56524255.785 9
  21766660.986    21766665.885   -21147394.759 8  18455936.928 9
  22456577.827    22456583.952    18535765.896 8 -22639596.184 8
  21676783.573    21676788.297    80741465.288 9-124427590.797 7
 90  2 28  9 44 14.0800000  0  4G 3G16G19G13
  20162406.843    20162410.804    22278132.365 9 -56531803.132 8
  21756217.503    21756223.502   -21202268.914 9  18413177.888 8
  22461466.624    22461472.304    18561452.501 7 -22619580.689 7
  21680425.216    21680429.925    80760604.247 9-124412677.312 8
 90  2 28  9 44 29.0800000  0  4G 3G16G19G13
  20160570.096    20160573.861    22268480.573 9 -56539324.009 8
  21745783.980    21745790.441   -21257098.218 9  18370453.790 9
  22466367.275    22466372.724    18587206.009 9 -22599513.059 9
  21684071.911    21684076.967    80779767.186 8-124397745.161 8
 90  2 28  9 44 44.0800000  0  4G 3G16G19G13
  20158740.952    20158744.321    22258862.967 9 -56546818.238 7
  21735359.092    21735364.703   -21311882.258 9  18327764.972 9
  22471279.832    22471286.296    18613026.004 8 -22579393.621 8
  21687723.133    21687727.415    80798954.094 9-124382794.328 8
 90  2 28  9 44 59.0800000  0  4G 3G16G19G13
  20156916.969    20156919.866    22249279.800 9 -56554285.635 9
  21724942.069    21724948.117   -21366620.517 9  18285111.829 8
  22476205.446    22476211.693    18638912.262 8 -22559222.556 9
  21691379.189    21691384.612    80818165.384 9-124367824.503 8
 90  2 28  9 45 14.0800000  0  4G 3G16G19G13
  20155099.320    20155102.541    22239730.926 8 -56561726.316 8
  21714534.753    21714540.820   -21421312.724 9  18242494.563 9
  22481145.333    22481152.104    18664864.417 8 -22539000.139 7
  21695039.339    21695044.081    80837401.190 9-124352835.594 7
 90  2 28  9 45 29.0800000  0  4G 3G16G19G13
  20153289.732    20153292.423    22230216.600 8 -56569140.061 8
  21704135.800    21704140.839   -21475958.392 9  18199913.573 9
  22486094.590    22486102.541    18690882.061 8 -22518726.699 8
  21698704.353    21698709.215    80856661.558 9-124337827.534 8
 90  2 28  9 45 44.0800000  0  4G 3G16G19G13
  20151485.247    20151488.178    22220736.926 9 -56576526.822 8
  21693746.291    21693751.514   -21530557.236 9  18157369.055 8
  22491059.892    22491065.582    18716965.121 8 -22498402.270 8
  21702374.548    21702378.972    80875946.574 9-124322800.255 8
 90  2 28  9 45 59.0800000  0  4G 3G16G19G13
  20149687.813    20149691.215    22211291.996 9 -56583886.495 9
  21683365.006    21683371.266   -21585108.888 8  18114861.311 9
  22496036.043    22496041.526    18743113.066 8 -22478027.303 7
  21706048.301    21706052.883    80895256.092 8-124307753.884 8
 90  2 28  9 46 14.0800000  0  4G 3G16G19G13
  20147896.549    20147900.228    22201881.775 9 -56591219.135 7
  21672993.064    21673000.068   -21639613.106 9  18072390.533 8
  22501023.575    22501029.327    18769325.361 8 -22457602.172 8
  21709727.723    21709733.069    80914590.193 9-124292688.360 8
 90  2 28  9 46 29.0800000  0  4G 3G16G19G13
  20146112.804    20146117.007    22192506.537 9 -56598524.509 7
  21662629.992    21662636.383   -21694069.297 9  18029957.188 8
  22506023.996    22506029.722    18795602.041 8 -22437126.888 8
  21713411.787    21713417.684    80933949.235 9-124277603.395 9
 90  2 28  9 46 44.0800000  0  4G 3G16G19G13
  20144335.449    20144338.623    22183166.257 9 -56605802.637 9
  21652277.246    21652282.168   -21748477.050 9  17987561.570 9
  22511034.736    22511042.519    18821942.660 8 -22416601.773 8
  21717100.754    21717106.448    80953333.174 9-124262499.045 8
 90  2 28  9 46 59.0800000  0  4G 3G16G19G13
  20142564.973    20142567.698    22173861.050 9 -56613053.445 8
  21641932.294    21641938.360   -21802836.208 9  17945203.836 9
  22516060.619    22516067.290    18848346.645 8 -22396027.293 8
  21720793.298    21720799.168    80972742.182 8-124247375.164 8
 90  2 28  9 47 14.0800000  0  4G 3G16G19G13
  20140800.612    20140803.532    22164590.911 9 -56620276.931 7
  21631597.362    21631603.689   -21857146.415 9  17902884.235 9
  22521097.168    22521102.584    18874813.805 8 -22375403.572 8
  21724492.496    21724497.661    80992176.153 8-124232231.816 7
 90  2 28  9 47 29.0800000  0  4G 3G16G19G13
  20139043.577    20139046.745    22155355.980 9 -56627472.977 8
  21621272.639    21621278.763   -21911407.218 9  17860603.132 9
  22526145.415    22526150.769    18901343.693 8 -22354730.969 7
  21728195.230    21728199.766    81011635.411 9-124217068.745 7
 90  2 28  9 47 44.0800000  0  4G 3G16G19G13
  20137293.008    20137295.700    22146156.597 9 -56634641.337 8
  21610956.324    21610962.215   -21965618.209 9  17818360.853 8
  22531205.736    22531211.918    18927935.917 8 -22334009.803 7
  21731902.559    21731908.164    81031119.799 9-124201886.122 8
 90  2 28  9 47 59.0800000  0  4G 3G16G19G13
  20135549.367    20135551.968    22136992.617 9 -56641782.093 8
  21600649.539    21600654.965   -22019779.184 9  17776157.529 9
  22536278.046    22536284.221    18954590.163 8 -22313240.303 7
  21735615.446    21735619.740    81050629.201 8-124186684.003 8
 90  2 28  9 48 14.0800000  0  4G 3G16G19G13
  20133811.315    20133815.418    22127864.032 9 -56648895.264 9
  21590353.074    21590358.652   -22073889.687 9  17733993.549 9
  22541362.554    22541368.281    18981306.203 9 -22292422.654 7
  21739333.706    21739336.957    81070164.028 9-124171462.068 8
 90  2 28  9 48 29.0800000  0  4G 3G16G19G13
  20132081.763    20132085.379    22118771.040 9 -56655980.704 7
  21580066.369    21580071.063   -22127949.429 8  17691869.108 8
  22546457.634    22546463.073    19008083.510 9 -22271557.247 8
  21743054.873    21743060.233    81089724.413 9-124156220.227 8
 90  2 28  9 48 44.0800000  0  4G 3G16G19G13
  20130358.259    20130361.417    22109713.784 9 -56663038.309 9
  21569788.711    21569793.982   -22181958.045 9  17649784.519 8
  22551564.201    22551571.344    19034921.736 9 -22250644.389 7
  21746782.558    21746786.433    81109310.320 9-124140958.483 7
 90  2 28  9 48 59.0800000  0  4G 3G16G19G13
  20128640.765    20128644.849    22100692.536 9 -56670067.834 8
  21559521.808    21559525.383   -22235914.930 9  17607740.241 8
  22556684.114    22556689.489    19061820.664 8 -22229684.212 7
  21750514.473    21750519.334    81128922.058 9-124125676.631 8
 90  2 28  9 49 14.0800000  0  4G 3G16G19G13
  20126931.083    20126934.667    22091707.269 9 -56677069.337 8
  21549263.119    21549267.834   -22289819.880 9  17565736.412 9
  22561814.914    22561819.421    19088780.056 8 -22208676.942 7
  21754250.328    21754255.526    81148559.714 9-124110374.556 8
 90  2 28  9 49 29.0800000  0  4G 3G16G19G13
  20125227.965    20125232.087    22082758.151 9 -56684042.666 8
  21539015.581    21539020.587   -22343672.429 9  17523773.434 8
  22566954.960    22566961.629    19115799.423 9 -22187622.945 7
  21757993.427    21757998.810    81168223.316 9-124095052.278 8
 90  2 28  9 49 44.0800000  0  4G 3G16G19G13
  20123532.001    20123536.205    22073845.038 9 -56690987.962 7
  21528777.435    21528782.878   -22397472.414 9  17481851.406 8
  22572108.833    22572115.061    19142878.309 8 -22166522.552 7
  21761739.644    21761745.441    81187912.688 9-124079709.916 9
 90  2 28  9 49 59.0800000  0  4G 3G16G19G13
  20121843.240    20121846.675    22064968.258 9 -56697904.920 8
  21518550.255    21518554.769   -22451219.343 9  17439970.713 9
  22577273.198    22577279.432    19170016.461 9 -22145375.961 7
  21765491.811    21765496.534    81207627.895 9-124064347.435 8
 90  2 28  9 50 14.0800000  0  4G 3G16G19G13
  20120160.746    20120164.215    22056127.938 9 -56704793.469 8
  21508332.085    21508337.012   -22504912.694 9  17398131.776 9
  22582448.512    22582455.708    19197213.634 9 -22124183.407 7
  21769248.367    21769252.472    81227369.457 9-124048964.399 8
 90  2 28  9 50 29.0800000  0  4G 3G16G19G13
  20118484.633    20118489.238    22047323.955 9 -56711653.699 8
  21498124.524    21498130.098   -22558552.347 9  17356334.686 9
  22587634.591    22587641.606    19224469.386 9 -22102945.197 7
  21773009.925    21773014.500    81247137.217 9-124033560.955 8
 90  2 28  9 50 44.0800000  0  4G 3G16G19G13
  20116817.012    20116820.323    22038556.541 9 -56718485.453 9
  21487927.926    21487933.773   -22612137.869 9  17314579.771 8
  22592832.840    22592838.663    19251783.214 9 -22081661.734 7
  21776776.919    21776781.596    81266931.206 9-124018137.079 8
 90  2 28  9 50 59.0800000  0  4G 3G16G19G13
  20115155.744    20115159.995    22029825.896 9 -56725288.541 7
  21477741.069    21477746.202   -22665668.832 9  17272867.384 9
  22598041.306    22598046.976    19279154.722 9 -22060333.335 6
  21780548.897    21780554.421    81286751.771 9-124002692.483 9
 90  2 28  9 51 14.0800000  0  4G 3G16G19G13
  20113500.857    20113503.687    22021132.123 9 -56732062.910 8
  21467564.676    21467570.548   -22719144.812 9  17231197.834 9
  22603261.476    22603266.638    19306583.745 9 -22038960.104 7
  21784325.577    21784330.815    81306598.739 9-123987227.320 8
 90  2 28  9 51 29.0800000  0  4G 3G16G19G13
  20111853.926    20111857.099    22012475.148 9 -56738808.596 8
  21457398.429    21457404.892   -22772565.608 9  17189571.284 9
  22608490.966    22608498.055    19334069.833 9 -22017542.421 7
  21788107.453    21788112.155    81326472.186 9-123971741.533 8
 90  2 28  9 51 44.0800000  0  4G 3G16G19G13
  20110213.730    20110217.375    22003855.150 8 -56745525.476 8
  21447243.958    21447249.250   -22825930.895 8  17147987.991 9
  22613732.691    22613738.824    19361612.427 9 -21996080.694 7
  21791893.982    21791898.634    81346372.269 9-123956234.957 8
 90  2 28  9 51 59.0800000  0  4G 3G16G19G13
  20108580.841    20108583.103    21995272.022 9 -56752213.610 8
  21437099.148    21437105.680   -22879240.349 8  17106448.192 8
  22618984.713    22618991.091    19389211.222 8 -21974575.179 7
  21795685.517    21795691.172    81366298.899 9-123940707.721 8
 90  2 28  9 52 14.0800000  0  4G 3G16G19G13
  20106954.486    20106956.968    21986725.957 8 -56758872.892 8
  21426965.396    21426971.236   -22932493.610 9  17064952.204 9
  22624246.369    22624251.870    19416865.685 9 -21953026.291 7
  21799482.230    21799487.085    81386252.041 9-123925159.819 8
 90  2 28  9 52 29.0800000  0  4G 3G16G19G13
  20105335.001    20105338.904    21978217.206 9 -56765503.099 8
  21416842.563    21416847.623   -22985690.277 9  17023500.291 9
  22629520.669    22629526.709    19444575.737 9 -21931434.066 6
  21803285.303    21803289.353    81406232.043 9-123909590.991 9
 90  2 28  9 52 44.0800000  0  4G 3G16G19G13
  20103722.746    20103726.186    21969745.829 9 -56772104.160 8
  21406730.430    21406735.083   -23038830.019 9  16982092.746 9
  22634803.633    22634809.740    19472341.139 9 -21909798.723 7
  21807092.464    21807096.715    81426238.823 9-123894001.309 8
 90  2 28  9 52 59.0800000  0  4G 3G16G19G13
  20102117.770    20102121.072    21961311.794 8 -56778676.135 8
  21396628.987    21396633.917   -23091912.479 9  16940729.829 9
  22640097.227    22640105.339    19500161.241 9 -21888120.773 7
  21810903.818    21810908.771    81446272.311 9-123878390.850 8
 90  2 28  9 53 14.0800000  0  4G 3G16G19G13
  20100519.700    20100522.840    21952915.178 9 -56785218.964 8
  21386538.907    21386543.692   -23144937.503 9  16899411.670 9
  22645402.526    22645408.416    19528035.937 9 -21866400.273 7
  21814722.295    21814726.318    81466332.896 9-123862759.224 9
 90  2 28  9 53 29.0800000  0  4G 3G16G19G13
  20098929.290    20098932.506    21944556.027 9 -56791732.565 8
  21376459.522    21376465.241   -23197904.294 9  16858138.900 8
  22650717.262    22650722.069    19555964.640 9 -21844637.691 7
  21818544.542    21818549.078    81486420.612 9-123847106.453 8
 90  2 28  9 53 44.0800000  0  4G 3G16G19G13
  20097345.368    20097350.158    21936234.650 8 -56798216.759 8
  21366392.252    21366396.292   -23250812.792 9  16816911.545 9
  22656042.555    22656048.081    19583946.828 9 -21822833.420 7
  21822372.037    21822376.903    81506535.633 8-123831432.416 8
 90  2 28  9 53 59.0800000  0  4G 3G16G19G13
  20095769.267    20095773.256    21927951.258 9 -56804671.342 8
  21356335.556    21356340.469   -23303662.264 9  16775730.192 9
  22661377.014    22661382.643    19611982.589 9 -21800987.424 7
  21826205.254    21826209.588    81526678.070 9-123815737.015 9
 90  2 28  9 54 14.0800000  0  4G 3G16G19G13
  20094200.026    20094204.372    21919706.136 9 -56811096.101 8
  21346289.441    21346293.639   -23356452.593 9  16734594.909 8
  22666722.517    22666727.653    19640071.744 9 -21779099.816 6
  21830043.323    21830047.427    81546848.077 9-123800020.128 8
 90  2 28  9 54 29.0800000  0  4G 3G16G19G13
  20092638.340    20092642.214    21911499.107 9 -56817491.179 8
  21336254.403    21336259.401   -23409183.245 9  16693506.140 9
  22672077.280    22672083.376    19668213.661 8 -21757171.090 7
  21833887.214    21833891.478    81567045.576 9-123784281.813 9
 90  2 28  9 54 44.0800000  0  4G 3G16G19G13
  20091084.819    20091087.468    21903330.187 9 -56823856.568 9
  21326230.723    21326237.116   -23461854.122 9  16652463.960 9
  22677443.678    22677449.994    19696407.809 8 -21735201.667 7
  21837735.029    21837740.511    81587270.555 9-123768522.098 8
 90  2 28  9 54 59.0800000  0  4G 3G16G19G13
  20089537.423    20089540.472    21895199.627 8 -56830192.072 8
  21316219.349    21316224.975   -23514464.758 9  16611468.718 8
  22682817.180    22682824.056    19724653.950 8 -21713191.727 8
  21841589.738    21841593.605    81607523.391 9-123752740.672 7
 90  2 28  9 55 14.0800000  0  4G 3G16G19G13
  20087997.592    20088000.360    21887107.593 8 -56836497.539 8
  21306219.725    21306225.325   -23567014.772 8  16570520.707 9
  22688201.089    22688208.404    19752951.598 9 -21691141.648 7
  21845448.557    21845453.769    81627804.101 9-123736937.538 8
 90  2 28  9 55 29.0800000  0  4G 3G16G19G13
  20086464.601    20086467.745    21879054.185 9 -56842772.925 8
  21296230.914    21296236.803   -23619503.734 9  16529620.256 9
  22693596.552    22693603.637    19781300.404 9 -21669051.728 8
  21849313.074    21849318.248    81648112.658 9-123721112.704 9
 90  2 28  9 55 44.0800000  0  4G 3G16G19G13
  20084939.669    20084942.928    21871039.371 8 -56849018.243 8
  21286254.329    21286259.265   -23671931.248 9  16488767.682 8
  22699000.831    22699008.169    19809699.853 8 -21646922.324 8
  21853183.451    21853187.940    81668449.228 9-123705266.033 7
 90  2 28  9 55 59.0800000  0  4G 3G16G19G13
  20083422.132    20083425.696    21863063.282 9 -56855233.360 8
  21276289.991    21276295.629   -23724297.256 9  16447963.053 9
  22704415.657    22704421.468    19838149.806 8 -21624753.598 7
  21857059.100    21857062.959    81688813.929 9-123689397.435 8
 90  2 28  9 56 14.0800000  0  4G 3G16G19G13
  20081911.558    20081914.703    21855126.011 8 -56861418.234 8
  21266337.032    21266341.947   -23776601.258 9  16407206.727 8
  22709838.217    22709844.136    19866649.884 7 -21602545.791 8
  21860938.491    21860944.097    81709206.484 9-123673507.156 9
 90  2 28  9 56 29.0800000  0  4G 3G16G19G13
  20080408.845    20080412.137    21847228.000 9 -56867572.531 8
  21256395.762    21256400.350   -23828842.811 9  16366499.055 9
  22715271.812    22715277.561    19895199.723 8 -21580299.208 8
  21864825.139    21864829.414    81729627.228 8-123657594.886 9
 90  2 28  9 56 44.0800000  0  4G 3G16G19G13
  20078912.600    20078915.807    21839368.835 9 -56873696.556 8
  21246466.718    21246471.451   -23881021.594 9  16325840.302 8
  22720712.703    22720719.883    19923798.925 8 -21558014.157 7
  21868716.081    21868721.233    81750076.342 9-123641660.522 9
 90  2 28  9 56 59.0800000  0  4G 3G16G19G13
  20077425.264    20077428.656    21831549.003 9 -56879789.909 8
  21236549.023    21236554.228   -23933137.306 9  16285230.708 9
  22726166.030    22726171.935    19952447.206 7 -21535690.865 9
  21872613.203    21872617.136    81770553.824 9-123625704.066 9
 90  2 28  9 57 14.0800000  0  4G 3G16G19G13
  20075944.177    20075946.258    21823768.274 9 -56885852.810 8
  21226643.466    21226649.207   -23985189.828 9  16244670.335 9
  22731626.627    22731631.996    19981144.033 7 -21513329.757 9
  21876515.179    21876519.686    81791059.582 9-123609725.567 9
 90  2 28  9 57 29.0800000  0  4G 3G16G19G13
  20074471.007    20074474.547    21816026.759 9 -56891885.154 8
  21216750.871    21216755.545   -24037178.522 9  16204159.704 9
  22737094.739    22737102.727    20009889.337 7 -21490930.880 7
  21880422.077    21880427.413    81811593.797 9-123593724.890 8
 90  2 28  9 57 44.0800000  0  4G 3G16G19G13
  20073005.660    20073008.085    21808325.053 9 -56897886.474 8
  21206869.687    21206875.186   -24089103.008 9  16163699.098 9
  22742574.775    22742582.265    20038682.620 8 -21468494.614 8
  21884335.643    21884341.210    81832156.815 9-123577701.779 8
 90  2 28  9 57 59.0800000  0  4G 3G16G19G13
  20071547.153    20071551.122    21800662.919 9 -56903856.968 7
  21197001.009    21197005.464   -24140962.954 9  16123288.789 9
  22748064.982    22748070.747    20067523.445 7 -21446021.294 9
  21888254.372    21888259.292    81852748.543 9-123561656.280 8
 90  2 28  9 58 14.0800000  0  4G 3G16G19G13
  20070097.173    20070100.327    21793040.557 9 -56909796.458 8
  21187144.792    21187149.783   -24192758.008 9  16082929.042 8
  22753560.427    22753567.492    20096411.348 7 -21423511.300 7
  21892178.338    21892183.448    81873369.129 9-123545588.299 8
 90  2 28  9 58 29.0800000  0  4G 3G16G19G13
  20068654.034    20068657.417    21785457.686 9 -56915705.180 8
  21177300.757    21177306.148   -24244487.999 9  16042619.997 8
  22759067.071    22759073.993    20125346.031 7 -21400964.860 7
  21896107.657    21896113.128    81894018.453 9-123529497.928 8
 90  2 28  9 58 44.0800000  0  4G 3G16G19G13
  20067218.736    20067221.604    21777914.879 9 -56921582.697 8
  21167469.104    21167474.558   -24296152.565 9  16002361.938 8
  22764580.546    22764588.907    20154327.042 7 -21378382.298 8
  21900042.722    21900047.294    81914696.552 8-123513385.132 8
 90  2 28  9 58 59.0800000  0  4G 3G16G19G13
  20065790.650    20065794.214    21770412.265 8 -56927428.874 8
  21157650.703    21157655.421   -24347750.997 9  15962155.411 8
  22770106.089    22770112.023    20183354.033 7 -21355763.921 8
  21903982.508    21903987.700    81935403.947 9-123497249.501 8
 90  2 28  9 59 14.0800000  0  4G 3G16G19G13
  20064370.806    20064374.466    21762949.894 9 -56933243.721 8
  21147844.192    21147848.681   -24399283.168 9  15922000.519 9
  22775636.991    22775643.899    20212426.668 8 -21333109.982 8
  21907928.485    21907934.208    81956140.482 8-123481091.183 8
 90  2 28  9 59 29.0800000  0  4G 3G16G19G13
  20062959.242    20062962.034    21755527.768 9 -56939027.186 8
  21138050.396    21138055.259   -24450748.829 9  15881897.453 8
  22781178.752    22781187.125    20241544.450 9 -21310420.843 7
  21911880.182    21911885.757    81976906.057 8-123464910.250 8
 90  2 28  9 59 44.0800000  0  4G 3G16G19G13
  20061553.679    20061557.535    21748145.963 8 -56944779.242 8
  21128269.813    21128275.174   -24502147.485 9  15841846.581 8
  22786728.906    22786735.489    20270707.180 9 -21287696.692 8
  21915837.321    21915843.012    81997700.894 8-123448706.471 8
 90  2 28  9 59 59.0800000  0  4G 3G16G19G13
  20060156.434    20060159.584    21740804.663 9 -56950499.752 8
  21118501.512    21118506.093   -24553479.016 9  15801848.030 9
  22792285.809    22792294.001    20299914.498 8 -21264937.787 9
  21919799.904    21919805.108    82018524.932 9-123432479.962 8
 90  2 28 10  0 14.0800000  0  4G 3G16G19G13
  20058767.584    20058770.023    21733504.146 9 -56956188.473 7
  21108746.353    21108750.770   -24604742.840 9  15761902.231 8
  22797853.052    22797860.768    20329165.845 8 -21242144.583 8
  21923768.662    21923773.452    82039378.468 8-123416230.463 8
 90  2 28 10  0 29.0800000  0  4G 3G16G19G13
  20057385.268    20057389.801    21726244.246 9 -56961845.507 8
  21099003.470    21099008.919   -24655938.726 9  15722009.370 8
  22803427.564    22803434.349    20358461.106 9 -21219317.176 9
  21927743.097    21927747.693    82060261.643 9-123399957.857 8
 90  2 28 10  0 44.0800000  0  4G 3G16G19G13
  20056011.900    20056015.503    21719025.196 8 -56967470.743 8
  21089274.800    21089279.382   -24707066.138 9  15682169.851 8
  22809010.976    22809017.947    20387800.072 9 -21196455.688 8
  21931721.282    21931726.821    82081174.510 8-123383662.131 8
 90  2 28 10  0 59.0800000  0  4G 3G16G19G13
  20054645.859    20054650.301    21711847.141 9 -56973064.026 8
  21079558.544    21079563.326   -24758124.702 9  15642383.982 9
  22814602.761    22814608.733    20417182.023 8 -21173560.713 9
  21935706.792    21935711.844    82102117.113 9-123367343.231 8
 90  2 28 10  1 14.0800000  0  4G 3G16G19G13
  20053288.317    20053291.252    21704710.199 9 -56978625.272 8
  21069855.790    21069861.035   -24809114.414 9  15602651.775 8
  22820201.770    22820207.773    20446606.633 9 -21150632.502 8
  21939698.344    21939703.051    82123089.282 9-123351001.299 8
 90  2 28 10  1 29.0800000  0  4G 3G16G19G13
  20051937.720    20051940.722    21697614.383 9 -56984154.477 7
  21060166.018    21060170.780   -24860034.811 9  15562973.577 9
  22825808.874    22825816.056    20476073.365 9 -21127671.457 8
  21943694.694    21943699.552    82144091.043 8-123334636.316 8
 90  2 28 10  1 44.0800000  0  4G 3G16G19G13
  20050595.690    20050598.648    21690559.914 8 -56989651.457 8
  21050488.568    21050493.963   -24910885.350 9  15523349.810 8
  22831422.845    22831431.842    20505582.222 9 -21104677.590 8
  21947696.291    21947702.382    82165122.845 8-123318247.893 7
 90  2 28 10  1 59.0800000  0  4G 3G16G19G13
  20049260.919    20049263.629    21683546.901 9 -56995116.143 9
  21040825.509    21040830.732   -24961665.902 9  15483780.589 9
  22837048.178    22837055.277    20535132.710 9 -21081651.282 8
  21951703.738    21951708.952    82186184.806 9-123301835.991 7
 90  2 28 10  2 14.0800000  0  4G 3G16G19G13
  20047934.494    20047937.381    21676575.545 9 -57000548.377 7
  21031176.592    21031181.106   -25012375.902 9  15444266.328 8
  22842680.240    22842685.486    20564724.449 9 -21058592.824 8
  21955717.308    21955723.425    82207276.703 8-123285400.759 7
 90  2 28 10  2 29.0800000  0  4G 3G16G19G13
  20046615.711    20046618.665    21669645.850 9 -57005948.122 9
  21021539.849    21021545.208   -25063015.084 9  15404807.265 8
  22848317.737    22848324.326    20594356.948 9 -21035502.623 8
  21959738.169    21959743.311    82228398.740 8-123268942.022 8
 90  2 28 10  2 44.0800000  0  4G 3G16G19G13
  20045304.713    20045309.322    21662758.262 9 -57011315.068 7
  21011917.022    21011922.295   -25113582.866 9  15365403.821 8
  22853964.400    22853971.068    20624030.077 9 -21012380.751 8
  21963763.473    21963767.689    82249551.188 9-123252459.604 8
 90  2 28 10  2 59.0800000  0  4G 3G16G19G13
  20044001.794    20044005.411    21655912.607 9 -57016649.349 7
  21002307.593    21002312.718   -25164079.081 9  15326056.159 8
  22859618.076    22859625.669    20653743.128 9 -20989227.773 8
  21967794.172    21967798.643    82270734.022 9-123235953.518 8
 90  2 28 10  3 14.0800000  0  4G 3G16G19G13
  20042707.280    20042711.493    21649109.013 9 -57021950.836 8
  20992712.300    20992717.486   -25214503.486 9  15286764.431 8
  22865280.366    22865287.976    20683496.177 9 -20966043.630 8
  21971830.735    21971835.664    82291947.481 9-123219423.544 8
 90  2 28 10  3 29.0800000  0  4G 3G16G19G13
  20041421.026    20041424.381    21642347.474 8 -57027219.561 8
  20983130.578    20983135.255   -25264855.752 9  15247528.929 9
  22870949.869    22870956.685    20713288.661 9 -20942828.769 7
  21975872.528    21975878.699    82313191.034 9-123202870.143 8
 90  2 28 10  3 44.0800000  0  4G 3G16G19G13
  20040142.033    20040145.482    21635628.318 8 -57032455.264 8
  20973562.412    20973567.628   -25315135.452 9  15208349.972 9
  22876626.348    22876633.272    20743119.660 9 -20919583.881 8
  21979920.897    21979925.739    82334465.057 9-123186293.005 7
 90  2 28 10  3 59.0800000  0  4G 3G16G19G13
  20038871.824    20038875.074    21628951.324 9 -57037658.110 7
  20964008.709    20964014.012   -25365342.498 9  15169227.635 8
  22882311.030    22882317.178    20772989.164 9 -20896308.982 7
  21983975.709    21983981.393    82355769.894 9-123169691.825 8
 90  2 28 10  4 14.0800000  0  4G 3G16G19G13
  20037608.924    20037612.236    21622316.807 9 -57042827.877 7
  20954469.109    20954473.241   -25415476.277 9  15130162.379 8
  22888001.475    22888009.048    20802896.923 9 -20873004.280 7
  21988036.347    21988041.480    82377105.722 9-123153066.523 8
 90  2 28 10  4 29.0800000  0  4G 3G16G19G13
  20036354.513    20036358.697    21615725.023 9 -57047964.311 8
  20944942.530    20944946.871   -25465536.425 9  15091154.526 9
  22893700.654    22893708.424    20832842.440 9 -20849670.158 8
  21992103.094    21992107.098    82398472.442 9-123136417.130 8
 90  2 28 10  4 44.0800000  0  4G 3G16G19G13
  20035108.717    20035111.599    21609176.083 8 -57053067.374 8
  20935430.468    20935435.655   -25515522.585 9  15052204.329 9
  22899406.273    22899412.660    20862825.650 9 -20826306.667 7
  21996173.961    21996179.552    82419870.142 9-123119743.596 7
 90  2 28 10  4 59.0800000  0  4G 3G16G19G13
  20033871.324    20033875.432    21602670.114 8 -57058136.965 8
  20925932.639    20925937.211   -25565434.317 9  15013312.121 8
  22905118.703    22905125.556    20892846.293 8 -20802913.995 8
  22000252.102    22000255.781    82441298.900 9-123103045.889 8
 90  2 28 10  5 14.0800000  0  4G 3G16G19G13
  20032640.724    20032644.656    21596207.395 9 -57063172.850 8
  20916448.843    20916453.534   -25615271.391 9  14974478.094 9
  22910838.654    22910845.635    20922903.738 9 -20779492.639 7
  22004334.871    22004339.625    82462758.817 8-123086323.861 8
 90  2 28 10  5 29.0800000  0  4G 3G16G19G13
  20031419.206    20031421.053    21589787.763 9 -57068175.153 7
  20906979.129    20906984.366   -25665033.485 9  14935702.497 9
  22916565.558    22916571.340    20952997.694 9 -20756042.864 8
  22008424.214    22008431.314    82484249.819 9-123069577.642 7
 90  2 28 10  5 44.0800000  0  4G 3G16G19G13
  20030205.643    20030208.998    21583411.411 9 -57073143.738 7
  20897523.982    20897529.284   -25714720.424 9  14896985.465 8
  22922299.708    22922306.129    20983127.411 9 -20732565.200 7
  22012519.908    22012526.149    82505771.835 9-123052807.258 8
 90  2 28 10  5 59.0800000  0  4G 3G16G19G13
  20029000.428    20029005.155    21577078.526 8 -57078078.461 8
  20888083.103    20888087.863   -25764331.676 9  14858327.409 8
  22928039.789    22928046.618    21013292.781 9 -20709059.756 6
  22016622.192    22016626.303    82527325.237 9-123036012.394 7
 90  2 28 10  6 14.0800000  0  4G 3G16G19G13
  20027803.130    20027807.014    21570789.329 9 -57082979.123 8
  20878657.164    20878661.750   -25813866.528 9  14819728.854 9
  22933786.360    22933792.143    21043493.697 9 -20685526.633 7
  22020730.667    22020734.326    82548910.468 9-123019192.731 8
 90  2 28 10  6 29.0800000  0  4G 3G16G19G13
  20026615.314    20026618.268    21564543.935 9 -57087845.659 9
  20869246.056    20869250.048   -25863325.114 9  14781189.741 9
  22939539.909    22939546.559    21073729.419 8 -20661966.365 6
  22024843.570    22024848.915    82570527.377 9-123002348.395 7
 90  2 28 10  6 44.0800000  0  4G 3G16G19G13
  20025434.577    20025438.065    21558342.256 9 -57092678.144 7
  20859848.362    20859852.901   -25912706.897 9  14742710.464 9
  22945300.395    22945306.643    21103999.920 8 -20638379.018 7
  22028962.845    22028966.808    82592175.829 9-122985479.504 8
 90  2 28 10  6 59.0800000  0  4G 3G16G19G13
  20024263.289    20024266.990    21552184.496 9 -57097476.392 9
  20850465.882    20850471.219   -25962011.680 9  14704291.181 8
  22951066.834    22951074.466    21134304.652 8 -20614764.984 7
  22033088.923    22033092.559    82613856.018 9-122968585.846 9
 90  2 28 10  7 14.0800000  0  4G 3G16G19G13
  20023099.809    20023103.246    21546070.892 8 -57102240.240 8
  20841097.924    20841103.387   -26011238.870 9  14665932.371 8
  22956840.105    22956848.949    21164643.313 9 -20591124.498 6
  22037219.929    22037224.753    82635568.066 9-122951667.368 8
 90  2 28 10  7 29.0800000  0  4G 3G16G19G13
  20021945.154    20021948.760    21540001.773 9 -57106969.425 9
  20831744.530    20831751.290   -26060388.252 9  14627634.182 8
  22962620.407    22962626.727    21195015.559 8 -20567457.856 7
  22041357.623    22041362.804    82657312.135 9-122934723.946 8
 90  2 28 10  7 44.0800000  0  4G 3G16G19G13
  20020799.089    20020801.733    21533977.000 9 -57111664.042 8
  20822407.344    20822411.823   -26109459.441 9  14589396.920 9
  22968405.115    22968413.390    21225420.664 9 -20543765.643 6
  22045501.479    22045506.265    82679088.215 9-122917755.601 8
 90  2 28 10  7 59.0800000  0  4G 3G16G19G13
  20019660.740    20019663.954    21527996.921 9 -57116323.842 8
  20813084.739    20813089.754   -26158452.074 9  14551220.865 9
  22974198.345    22974205.726    21255858.762 8 -20520047.683 6
  22049651.994    22049657.437    82700896.483 9-122900762.142 8
 90  2 28 10  8 14.0800000  0  4G 3G16G19G13
  20018531.401    20018534.210    21522061.523 9 -57120948.817 7
  20803777.141    20803781.830   -26207365.731 9  14513106.355 9
  22979996.487    22980002.547    21286329.386 8 -20496304.376 7
  22053808.376    22053812.527    82722736.891 9-122883743.679 7
 90  2 28 10  8 29.0800000  0  4G 3G16G19G13
  20017410.021    20017413.638    21516170.973 9 -57125538.849 7
  20794483.495    20794487.857   -26256200.292 9  14475053.466 9
  22985800.416    22985807.365    21316832.056 8 -20472536.119 6
  22057970.681    22057974.885    82744609.482 9-122866700.108 8
 90  2 28 10  8 44.0800000  0  4G 3G16G19G13
  20016297.494    20016301.868    21510325.172 9 -57130094.015 8
  20785206.228    20785209.943   -26304955.440 9  14437062.448 9
  22991610.383    22991617.256    21347366.418 8 -20448743.179 7
  22062139.025    22062142.503    82766514.373 9-122849631.377 8
 90  2 28 10  8 59.0800000  0  4G 3G16G19G13
  20015194.055    20015197.113    21504524.567 9 -57134613.965 8
  20775943.053    20775946.874   -26353630.617 9  14399133.738 8
  22997428.207    22997434.405    21377931.829 7 -20424926.015 6
  22066313.340    22066317.916    82788451.923 9-122832537.208 8
 90  2 28 10  9 14.0800000  0  4G 3G16G19G13
  20014098.213    20014101.714    21498769.159 9 -57139098.700 8
  20766696.114    20766700.113   -26402225.479 9  14361267.612 9
  23003248.908    23003258.026    21408528.346 7 -20401084.622 6
  22070494.582    22070499.449    82810422.252 9-122815417.472 8
 90  2 28 10  9 29.0800000  0  4G 3G16G19G13
  20013012.064    20013014.584    21493059.212 9 -57143547.992 7
  20757463.010    20757468.047   -26450739.884 9  14323464.200 9
  23009078.418    23009083.948    21439155.336 7 -20377219.509 7
  22074681.070    22074686.018    82832425.175 9-122798272.363 8
 90  2 28 10  9 44.0800000  0  4G 3G16G19G13
  20011934.124    20011937.966    21487394.531 9 -57147962.040 7
  20748246.691    20748250.783   -26499173.512 9  14285723.739 9
  23014911.723    23014919.253    21469812.664 8 -20353330.722 7
  22078873.969    22078878.806    82854460.722 9-122781101.828 8
 90  2 28 10  9 59.0800000  0  4G 3G16G19G13
  20010864.439    20010868.708    21481775.547 8 -57152340.463 8
  20739045.973    20739050.814   -26547525.714 9  14248046.726 9
  23020752.156    23020760.776    21500500.122 8 -20329418.481 7
  22083073.182    22083078.530    82876529.128 9-122763905.668 8
 90  2 28 10 10 14.0800000  0  4G 3G16G19G13
  20009804.161    20009807.446    21476202.604 9 -57156682.997 8
  20729859.152    20729864.465   -26595796.169 9  14210433.407 8
  23026597.559    23026603.453    21531217.002 8 -20305483.304 7
  22087279.836    22087284.302    82898630.466 9-122746683.857 9
 90  2 28 10 10 29.0800000  0  4G 3G16G19G13
  20008752.230    20008756.348    21470675.427 9 -57160989.889 8
  20720688.727    20720695.373   -26643984.669 8  14172883.964 9
  23032447.369    23032455.136    21561962.992 6 -20281525.445 7
  22091491.824    22091495.826    82920764.822 9-122729436.325 8
 90  2 28 10 10 44.0800000  0  4G 3G16G19G13
  20007709.830    20007713.092    21465194.212 8 -57165260.969 8
  20711535.604    20711540.645   -26692090.931 9  14135398.598 9
  23038304.481    23038312.587    21592737.781 8 -20257545.135 7
  22095709.744    22095714.405    82942932.473 9-122712162.845 8
 90  2 28 10 10 59.0800000  0  4G 3G16G19G13
  20006675.573    20006678.796    21459759.307 9 -57169495.953 9
  20702397.536    20702401.991   -26740114.459 9  14097977.703 9
  23044165.790    23044174.037    21623541.055 7 -20233542.635 7
  22099934.075    22099939.752    82965133.270 9-122694863.539 8
 90  2 28 10 11 14.0800000  0  4G 3G16G19G13
  20005649.958    20005654.121    21454370.789 9 -57173694.795 8
  20693274.429    20693279.512   -26788054.925 9  14060621.526 9
  23050032.899    23050040.446    21654372.358 7 -20209518.312 8
  22104164.826    22104170.050    82987367.344 9-122677538.309 9
 90  2 28 10 11 29.0800000  0  4G 3G16G19G13
  20004633.164    20004636.856    21449028.716 9 -57177857.474 9
  20684167.277    20684172.502   -26835911.944 9  14023330.395 9
  23055906.086    23055912.113    21685231.319 8 -20185472.419 7
  22108403.018    22108407.131    83009634.811 9-122660187.046 9
 90  2 28 10 11 44.0800000  0  4G 3G16G19G13
  20003625.641    20003629.169    21443733.183 9 -57181983.855 8
  20675077.391    20675081.831   -26883685.470 9  13986104.331 9
  23061782.219    23061789.777    21716117.375 7 -20161405.412 8
  22112646.390    22112652.120    83031935.553 9-122642809.840 8
 90  2 28 10 11 59.0800000  0  4G 3G16G19G13
  20002626.648    20002630.215    21438484.220 9 -57186073.942 8
  20666002.680    20666006.286   -26931375.301 9  13948943.469 9
  23067666.874    23067672.540    21747030.318 9 -20137317.459 8
  22116897.193    22116901.883    83054269.550 9-122625406.752 9
 90  2 28 10 12 14.0800000  0  4G 3G16G19G13
  20001637.124    20001641.167    21433282.013 9 -57190127.604 8
  20656942.753    20656945.448   -26978980.902 9  13911848.245 9
  23073553.281    23073559.657    21777969.769 7 -20113208.852 8
  22121153.032    22121158.199    83076637.067 9-122607977.534 8
 90  2 28 10 12 29.0800000  0  4G 3G16G19G13
  20000655.200    20000658.759    21428126.554 9 -57194144.838 8
  20647899.377    20647903.894   -27026502.050 9  13874818.810 9
  23079445.788    23079453.702    21808935.301 9 -20089079.943 8
  22125415.130    22125421.562    83099038.322 9-122590522.029 8
 90  2 28 10 12 44.0800000  0  4G 3G16G19G13
  19999684.480    19999687.653    21423018.120 8 -57198125.428 8
  20638872.940    20638877.338   -27073938.351 9  13837855.500 8
  23085343.573    23085350.921    21839926.383 8 -20064931.084 7
  22129684.516    22129689.893    83121473.033 9-122573040.453 9
 90  2 28 10 12 59.0800000  0  4G 3G16G19G13
  19998720.914    19998723.501    21417956.813 9 -57202069.296 7
  20629861.307    20629866.107   -27121289.493 9  13800958.546 9
  23091245.950    23091252.547    21870942.798 9 -20040762.510 9
  22133960.599    22133965.222    83143941.468 9-122555532.598 8
 90  2 28 10 13 14.0800000  0  4G 3G16G19G13
  19997766.291    19997770.130    21412942.936 9 -57205976.202 8
  20620867.908    20620871.536   -27168555.065 9  13764128.269 9
  23097151.788    23097159.080    21901984.230 9 -20016574.436 8
  22138243.369    22138248.240    83166443.725 9-122537998.396 8
 90  2 28 10 13 29.0800000  0  4G 3G16G19G13
  19996821.273    19996824.666    21407976.581 8 -57209846.084 8
  20611889.863    20611893.733   -27215734.501 9  13727365.119 9
  23103064.247    23103071.932    21933050.428 8 -19992367.072 8
  22142531.328    22142535.274    83188980.047 9-122520437.624 9
 90  2 28 10 13 44.0800000  0  4G 3G16G19G13
  19995885.277    19995888.390    21403057.757 9 -57213678.929 8
  20602928.531    20602932.006   -27262827.783 9  13690669.085 8
  23108980.372    23108988.575    21964140.944 8 -19968140.744 9
  22146826.318    22146831.757    83211550.452 9-122502850.317 8
 90  2 28 10 13 59.0800000  0  4G 3G16G19G13
  19994958.803    19994962.043    21398186.660 9 -57217474.584 8
  20593983.662    20593987.866   -27309834.497 9  13654040.520 9
  23114901.682    23114909.419    21995255.322 9 -19943895.842 8
  22151126.860    22151133.410    83234155.046 8-122485236.363 9
 90  2 28 10 14 14.0800000  0  4G 3G16G19G13
  19994040.710    19994044.284    21393363.412 8 -57221232.941 9
  20585054.492    20585059.825   -27356754.420 9  13617479.578 9
  23120827.177    23120835.616    22026392.968 9 -19919632.804 8
  22155435.005    22155441.106    83256793.584 8-122467595.967 8
 90  2 28 10 14 29.0800000  0  4G 3G16G19G13
  19993132.206    19993135.330    21388588.116 9 -57224953.955 8
  20576141.978    20576147.210   -27403587.184 9  13580986.555 8
  23126756.641    23126764.287    22057553.710 9 -19895351.762 8
  22159750.027    22159755.280    83279466.395 8-122449928.867 8
 90  2 28 10 14 44.0800000  0  4G 3G16G19G13
  19992231.788    19992236.547    21383860.920 9 -57228637.490 7
  20567246.950    20567251.557   -27450332.370 9  13544561.771 8
  23132690.298    23132699.086    22088737.120 9 -19871053.048 9
  22164070.784    22164076.236    83302173.452 9-122432235.075 8
 90  2 28 10 14 59.0800000  0  4G 3G16G19G13
  19991342.272    19991346.289    21379182.045 9 -57232283.352 8
  20558368.892    20558372.928   -27496989.725 9  13508205.417 8
  23138629.075    23138635.741    22119943.030 9 -19846736.815 8
  22168399.409    22168403.198    83324915.068 9-122414514.355 8
 90  2 28 10 15 14.0800000  0  4G 3G16G19G13
  19990461.156    19990463.979    21374551.797 9 -57235891.339 9
  20549506.580    20549511.357   -27543558.794 9  13471917.861 9
  23144571.716    23144579.031    22151171.174 9 -19822403.247 9
  22172733.149    22172738.587    83347691.371 8-122396766.627 9
 90  2 28 10 15 29.0800000  0  4G 3G16G19G13
  19989589.209    19989593.186    21369970.183 9 -57239461.423 8
  20540661.658    20540666.468   -27590039.145 9  13435699.434 8
  23150518.537    23150526.970    22182421.355 9 -19798052.524 8
  22177072.764    22177078.055    83370502.279 7-122378991.915 9
 90  2 28 10 15 44.0800000  0  4G 3G16G19G13
  19988727.155    19988729.538    21365437.326 8 -57242993.504 8
  20531834.146    20531838.288   -27636430.504 9  13399550.354 8
  23156469.323    23156476.601    22213692.952 9 -19773685.104 8
  22181420.411    22181426.075    83393347.712 7-122361190.297 8
 90  2 28 10 15 59.0800000  0  4G 3G16G19G13
  19987873.512    19987876.080    21360953.402 9 -57246487.482 8
  20523022.654    20523027.519   -27682732.740 9  13363470.724 8
  23162423.899    23162431.968    22244985.589 9 -19749301.286 9
  22185774.938    22185779.899    83416227.900 8-122343361.590 9
 90  2 28 10 16 14.0800000  0  4G 3G16G19G13
  19987029.275    19987031.384    21356518.345 9 -57249943.371 7
  20514228.685    20514232.749   -27728945.623 9  13327460.714 9
  23168383.030    23168390.590    22276298.655 9 -19724901.557 8
  22190135.186    22190140.496    83439142.870 8-122325505.797 8
 90  2 28 10 16 29.0800000  0  4G 3G16G19G13
  19986194.958    19986198.704    21352132.436 9 -57253360.964 9
  20505451.786    20505455.886   -27775068.799 9  13291520.615 8
  23174345.018    23174352.822    22307631.547 9 -19700486.384 9
  22194502.161    22194507.395    83462092.784 8-122307622.776 8
 90  2 28 10 16 44.0800000  0  4G 3G16G19G13
  19985369.390    19985372.745    21347795.562 9 -57256740.329 8
  20496691.956    20496696.218   -27821101.838 9  13255650.738 8
  23180311.430    23180318.675    22338984.306 9 -19676055.705 8
  22198876.042    22198881.543    83485077.406 8-122289712.705 9
